GFSNW_925_thetae_000.txt.gz
Theta_e
305 306 306 307 308 308 309 311 321 314 314 323 319 324 321 318 322 321 323 323 324 326 325 328 328 328 325 322 322 327 324 328 331 329 319 313 314 317 316 322 321 316 316 321
308 306 306 307 307 308 308 314 315 313 313 326 323 317 317 317 322 322 323 324 323 323 327 329 328 327 323 321 322 326 324 328 327 326 323 317 322 317 317 318 320 326 324 323
309 308 307 307 307 308 307 311 315 316 314 311 319 320 318 319 314 319 321 322 321 323 326 323 328 326 321 321 321 319 321 325 327 322 321 323 323 319 317 321 323 321 322 321
311 310 308 308 306 307 308 311 313 310 318 317 315 315 316 317 319 316 318 322 322 323 325 324 325 322 322 319 317 321 322 326 325 324 324 323 323 323 322 322 321 323 321 320
315 311 309 308 307 306 309 312 314 309 312 310 315 312 316 318 315 317 319 322 321 322 323 322 323 322 322 321 319 320 317 322 320 319 317 317 320 320 321 321 321 321 321 322
315 314 311 310 307 306 308 308 307 310 309 312 315 316 314 314 313 312 314 317 320 321 319 318 318 318 319 320 321 320 320 319 317 315 317 318 317 316 317 317 318 319 321 319
316 315 315 312 310 306 307 308 308 312 313 311 313 312 312 313 311 312 308 314 315 311 308 308 309 309 310 312 314 319 318 319 320 318 317 323 318 316 316 317 317 317 317 318
316 316 315 314 312 309 306 308 308 309 310 308 308 309 309 308 308 310 310 308 308 307 307 309 310 312 312 311 311 311 315 316 316 320 320 319 318 318 317 318 319 317 317 318
315 316 316 315 314 313 310 307 308 308 311 314 307 308 308 310 309 307 306 304 304 306 308 309 313 320 313 316 312 313 313 314 316 320 322 324 318 316 314 315 319 317 317 316
314 314 315 315 315 313 311 310 308 310 311 311 308 311 312 305 305 307 304 305 306 305 310 312 313 314 309 315 314 318 318 317 320 320 321 320 317 315 313 318 320 317 313 310
311 312 313 314 314 314 312 311 310 308 310 310 308 307 305 304 306 313 305 308 307 307 310 311 312 311 310 312 311 316 319 320 319 319 321 322 316 315 317 317 316 312 310 310
310 311 312 312 313 313 312 311 312 310 308 311 308 309 309 307 306 308 304 312 309 308 311 310 310 310 309 311 318 310 315 317 320 320 321 317 314 315 313 311 310 310 309 309
308 309 310 311 311 312 312 311 310 308 309 310 310 313 311 311 310 309 311 308 307 307 309 311 312 314 312 315 315 316 313 311 312 316 317 316 315 310 310 308 309 308 307 307
306 307 309 309 310 311 311 311 310 310 309 313 314 309 310 311 311 308 308 309 306 308 309 311 312 313 312 314 316 316 315 312 316 317 316 315 314 311 309 306 304 302 300 300
304 306 307 308 309 310 311 311 311 311 312 314 313 310 308 308 310 309 308 308 310 309 310 310 311 311 311 311 311 313 312 315 317 317 314 314 314 312 304 303 301 300 300 298
303 304 306 307 308 309 310 310 311 311 310 312 311 308 306 306 307 309 309 309 309 309 310 310 310 309 310 312 314 313 312 312 312 314 312 311 303 302 300 301 298 297 297 296
303 304 305 307 308 309 309 310 306 308 310 310 309 310 306 303 305 306 308 307 308 309 309 309 310 309 310 311 314 312 312 311 311 310 307 305 300 302 296 296 295 294 293 291
303 305 306 307 309 309 307 306 307 309 309 306 306 307 306 304 307 310 306 310 308 308 310 310 310 309 309 310 312 311 311 310 309 307 302 302 299 296 295 292 291 290 289 288
305 306 306 306 306 305 303 303 305 307 307 307 304 309 312 303 306 306 307 307 310 308 309 309 308 310 309 311 310 309 308 307 307 298 297 296 296 294 292 290 288 288 287 287
306 305 304 302 300 300 301 301 302 301 301 300 303 304 307 304 306 307 307 305 306 308 307 305 306 308 308 309 308 308 307 304 297 296 295 294 294 293 289 288 288 287 287 286
305 303 301 298 299 299 300 302 303 302 304 301 301 302 305 301 307 308 306 305 304 307 304 306 305 306 306 299 297 296 298 299 297 295 295 293 295 290 287 287 286 285 285 285
304 301 298 298 298 299 302 303 299 300 304 299 301 301 302 301 301 306 302 305 302 305 299 302 303 303 297 295 294 294 296 296 291 289 288 287 287 287 286 286 285 284 284 284
301 298 297 299 299 302 304 303 301 299 297 294 298 299 300 299 300 303 303 302 303 298 300 301 302 299 296 293 293 292 292 289 287 287 287 286 286 284 284 285 284 284 283 283
300 302 303 300 301 302 303 301 302 297 293 295 299 299 299 299 301 302 303 302 299 301 300 300 299 297 294 292 292 292 292 289 288 288 287 286 285 285 284 284 283 283 283 282
301 300 303 302 299 294 290 289 293 292 294 297 297 297 298 298 301 300 300 299 299 299 300 298 297 293 291 291 291 292 292 289 287 287 287 286 285 284 284 283 282 282 281 281
299 299 302 294 295 295 290 292 294 293 295 295 297 298 299 300 299 300 299 298 298 299 297 298 292 290 291 291 291 291 291 289 287 287 286 285 284 284 284 282 281 281 280 280
300 300 299 297 295 300 297 294 295 294 297 300 299 298 299 297 298 297 295 296 297 297 296 293 289 289 290 290 290 290 289 287 286 285 283 284 283 282 281 281 281 280 279 279

GFSNW_925_thetae_003.txt.gz
Theta_e
308 305 306 307 307 308 312 318 323 317 317 327 326 328 326 321 324 323 324 325 326 327 327 329 328 328 327 323 325 328 326 329 330 329 319 316 318 320 320 325 324 322 320 322
309 307 306 307 307 308 311 318 319 318 319 328 326 322 321 321 324 324 325 325 325 326 327 330 328 328 323 323 325 327 326 329 330 329 325 321 325 322 321 321 325 326 323 322
310 309 306 305 306 307 311 316 322 319 321 320 325 325 323 322 318 322 323 324 324 326 326 326 328 327 322 322 323 320 322 327 328 327 324 323 325 324 323 323 326 323 323 323
313 309 308 306 306 306 311 316 316 315 322 322 320 320 321 321 321 321 321 324 324 325 327 326 326 324 323 321 317 322 325 326 324 323 322 320 321 321 321 322 321 321 320 320
315 312 309 307 306 307 313 316 315 314 317 316 318 317 320 320 318 318 322 324 323 323 325 323 326 324 324 323 320 321 320 323 321 319 315 315 315 316 316 318 319 320 320 321
316 315 313 309 306 308 312 312 311 315 312 316 317 317 317 318 316 315 317 321 322 323 321 319 319 320 320 321 320 320 320 318 317 317 315 317 319 318 317 317 317 318 321 321
316 315 315 313 309 307 311 311 313 316 315 315 316 315 316 316 316 315 314 316 317 313 310 310 311 311 312 312 314 316 317 318 317 318 317 323 320 318 318 318 318 319 319 319
315 316 316 315 313 307 308 311 312 314 316 314 313 312 313 313 312 314 314 311 309 309 310 313 316 316 315 314 313 312 312 315 317 320 322 321 321 320 319 319 320 319 319 318
314 315 316 316 315 313 310 308 308 310 318 317 311 312 312 316 313 310 308 305 305 308 311 314 324 330 320 322 317 316 315 314 317 323 324 328 322 318 316 316 320 319 318 318
313 314 314 315 316 314 312 312 308 312 318 313 311 317 317 310 310 310 306 307 307 307 310 315 317 320 312 322 320 321 320 318 319 320 324 323 319 318 316 321 322 319 318 318
310 311 313 313 314 314 314 313 309 311 315 315 310 309 310 305 307 319 308 310 310 310 315 317 315 317 315 315 316 318 321 323 323 321 323 325 318 318 319 319 318 318 315 312
309 310 311 312 313 313 312 312 312 308 311 315 311 311 310 306 308 311 305 312 312 313 315 311 312 311 310 312 317 315 318 320 321 322 323 319 319 318 318 317 317 316 313 311
307 309 310 311 311 312 312 311 310 308 309 311 311 315 314 312 310 309 312 311 311 311 312 313 313 316 313 319 318 318 317 316 319 318 318 318 318 318 316 314 313 311 309 309
305 307 308 309 310 311 311 311 311 310 311 316 318 311 312 311 312 312 311 310 307 309 311 313 313 315 314 317 317 318 317 317 317 318 318 318 318 316 311 309 306 305 304 303
304 305 307 307 309 310 311 311 311 311 313 316 316 313 313 310 312 312 311 310 311 310 310 312 312 312 312 312 313 316 315 316 318 319 316 315 314 312 310 310 307 304 302 299
303 304 305 306 308 309 310 312 311 310 311 312 313 313 310 308 309 311 312 312 312 312 312 312 311 310 312 315 315 314 313 313 314 315 313 313 313 305 304 306 304 301 300 299
302 303 304 305 308 309 309 311 306 308 310 311 313 315 309 306 308 309 309 309 309 310 310 310 311 310 311 313 314 312 312 311 312 311 311 311 311 308 300 299 298 296 292 292
302 303 305 306 308 308 307 306 307 310 309 309 310 313 310 305 309 311 309 311 309 309 311 310 311 310 310 311 312 311 311 310 310 310 309 303 299 298 296 293 292 292 291 290
303 305 306 306 306 305 302 304 307 308 307 310 307 312 312 305 308 309 309 309 311 309 311 310 310 311 310 311 311 310 309 310 310 301 299 298 298 295 292 291 290 291 289 288
305 304 305 305 300 301 301 303 305 302 302 301 306 308 310 308 309 309 309 307 307 309 308 307 308 309 309 309 309 309 309 305 304 299 298 297 296 293 292 292 289 288 288 287
305 305 302 298 299 301 302 304 306 306 305 303 303 304 306 303 309 310 307 307 306 308 308 308 308 307 307 307 306 300 299 300 302 302 301 298 296 294 293 288 288 287 286 286
304 301 298 298 300 301 305 305 302 302 308 303 303 302 304 303 303 306 302 306 305 307 302 304 304 306 303 299 299 298 298 299 298 297 296 293 295 292 288 288 287 286 285 285
301 300 299 301 301 305 305 305 304 305 302 299 300 301 302 300 301 305 304 306 306 301 302 303 304 303 300 298 297 296 295 295 292 290 288 287 287 287 286 286 286 285 285 285
303 303 303 302 302 302 306 306 306 299 298 298 301 301 301 301 302 304 304 304 301 303 302 303 304 302 298 295 295 296 294 291 290 289 287 287 286 286 286 285 286 285 285 284
301 301 304 303 302 300 295 294 296 294 298 300 300 299 300 299 301 301 303 303 302 303 304 304 301 298 295 295 295 295 296 294 291 289 288 287 286 286 286 286 285 284 284 283
300 299 302 297 300 301 294 294 298 295 298 298 300 300 301 302 302 303 303 303 302 304 303 303 300 296 294 294 294 294 295 294 291 289 288 288 287 287 286 286 284 283 283 282
301 301 300 301 301 305 300 297 298 296 299 302 302 302 302 301 301 302 301 301 303 303 301 299 296 294 294 293 294 293 294 293 291 289 288 287 286 285 284 284 284 283 282 281

GFSNW_925_thetae_006.txt.gz
Theta_e
309 307 306 306 307 308 314 319 326 318 320 328 328 327 327 323 324 324 324 326 327 327 328 328 327 329 326 323 325 328 325 328 327 326 319 319 318 319 318 321 322 319 317 318
311 308 307 305 306 306 310 321 321 320 322 327 325 324 322 322 324 324 325 326 326 326 327 330 329 327 323 323 324 325 325 329 330 329 325 322 325 322 319 319 322 326 320 319
314 309 308 306 306 306 311 319 325 325 322 320 324 324 324 323 320 323 323 324 325 325 327 327 329 325 324 323 323 320 322 326 327 327 323 323 326 324 324 322 322 323 322 321
315 313 309 307 305 307 313 317 317 317 325 320 320 321 321 322 323 322 322 324 324 325 327 326 325 323 323 321 318 321 324 326 322 322 321 320 320 320 320 322 322 322 319 319
315 315 313 309 305 310 314 318 317 315 317 317 317 318 320 319 318 319 322 325 323 323 323 324 326 324 323 323 320 321 319 322 320 319 317 315 315 315 314 316 318 319 319 319
315 315 315 313 307 311 314 313 312 316 313 317 317 318 316 318 317 316 318 321 323 322 315 312 313 315 318 320 320 319 319 317 316 316 315 316 317 316 315 315 315 315 316 316
316 315 315 315 311 309 312 312 314 318 316 315 317 317 316 317 315 316 315 315 317 313 310 310 311 311 311 312 314 315 318 317 316 317 317 320 318 317 317 317 317 315 316 316
316 316 315 315 315 307 311 312 313 314 315 314 314 315 315 314 313 313 314 310 308 308 310 313 316 313 315 314 314 314 310 314 316 319 320 319 320 319 318 318 318 316 316 315
314 315 315 315 314 312 312 308 311 313 319 316 313 312 313 315 313 310 308 305 305 308 312 315 324 328 322 318 318 316 315 311 315 316 320 323 321 316 314 316 317 318 317 316
313 314 315 314 315 314 314 313 310 315 321 313 313 318 316 311 311 311 306 307 307 308 312 317 319 321 312 321 321 320 317 315 316 316 319 320 318 314 315 320 320 318 317 317
310 312 313 315 314 314 314 313 309 313 318 315 310 310 310 307 309 316 308 310 310 310 313 317 316 315 315 315 317 319 319 319 318 319 319 319 318 316 318 316 317 317 316 313
308 309 311 313 314 314 312 313 311 309 314 315 312 312 312 308 309 311 306 313 312 313 315 313 312 312 310 314 318 314 315 317 319 320 319 317 318 317 313 312 315 314 313 311
307 309 310 312 312 313 312 312 311 309 311 313 312 315 314 312 309 309 312 309 311 310 313 313 313 316 312 317 315 317 315 314 316 316 316 315 314 314 309 308 309 308 308 308
305 306 308 310 311 312 311 312 311 311 310 315 317 312 313 312 313 312 311 308 309 309 311 313 313 315 314 317 316 316 315 314 316 316 315 314 314 311 309 308 305 304 303 304
304 305 307 308 309 311 311 311 311 311 313 315 315 312 313 311 312 312 312 310 311 310 311 312 313 312 312 312 312 314 313 314 315 315 312 312 312 310 306 306 306 304 302 299
303 304 305 307 308 310 310 310 310 311 311 312 312 313 310 308 310 312 313 312 310 310 311 311 311 310 311 314 315 311 311 311 310 311 309 309 308 308 303 304 302 300 299 299
302 303 304 306 307 309 309 310 306 308 310 311 311 314 307 307 310 309 309 309 309 310 310 310 311 310 311 313 315 311 309 309 308 307 307 308 305 303 298 298 297 295 293 293
302 303 304 306 308 308 307 306 307 309 309 308 307 311 309 305 309 310 308 310 309 308 310 310 311 310 310 311 310 309 308 308 307 307 302 301 298 296 295 294 293 292 292 291
303 304 306 306 306 305 303 305 308 309 307 308 306 310 311 305 308 308 308 308 310 309 310 311 310 311 310 310 309 307 307 308 307 298 296 296 297 296 294 292 292 292 291 289
305 305 305 304 301 302 303 304 305 303 303 302 306 307 310 307 309 307 306 305 307 308 307 306 307 309 307 306 306 305 305 302 300 300 299 297 297 295 293 292 291 290 287 287
304 304 301 299 300 302 303 303 306 305 305 304 303 304 307 303 308 308 304 306 305 306 307 307 307 306 304 304 303 299 297 298 299 299 300 296 295 294 293 292 289 287 287 286
304 301 299 299 300 301 303 304 301 303 307 304 304 303 304 302 302 306 303 306 304 306 301 303 305 302 302 299 298 297 296 296 297 295 296 295 295 295 294 289 287 286 286 285
301 298 298 300 300 303 302 303 305 305 301 299 300 302 301 301 302 303 304 306 306 299 302 303 300 300 298 297 296 296 295 295 294 292 291 291 292 292 287 286 286 286 285 285
301 301 301 300 299 300 302 304 303 298 298 298 301 301 302 300 303 303 304 304 300 303 303 300 300 299 298 295 294 294 294 293 290 289 287 286 286 285 286 286 286 285 285 284
300 300 301 301 299 298 294 295 296 295 297 298 299 299 299 300 302 300 303 303 302 302 300 299 296 295 293 292 292 293 293 291 288 287 285 285 285 285 285 285 285 285 284 284
298 299 302 296 298 298 293 295 297 294 298 296 297 299 300 301 300 303 302 303 301 300 297 295 292 294 292 291 291 291 292 292 290 288 287 286 286 285 285 286 285 284 283 283
299 300 298 297 295 299 296 295 296 295 297 297 300 301 298 296 301 302 299 299 300 299 294 292 291 289 289 290 291 290 291 291 291 289 287 287 287 286 285 281 284 284 283 282

GFSNW_925_thetae_009.txt.gz
Theta_e
315 310 308 306 306 307 312 313 318 319 319 323 319 323 325 323 324 323 325 327 328 328 329 327 327 328 325 322 324 326 324 321 323 324 318 318 317 318 315 318 321 316 314 317
315 313 309 307 306 306 309 312 315 320 320 322 321 321 321 320 323 323 325 326 326 325 327 330 327 325 323 323 323 325 324 326 328 326 323 320 323 321 318 317 318 322 319 317
315 315 311 309 305 306 310 312 318 317 313 315 320 322 323 322 319 321 322 324 323 325 326 325 326 324 323 321 321 320 321 324 324 325 322 321 325 324 322 319 320 320 321 320
315 315 314 311 306 306 312 309 312 314 318 315 316 317 319 321 322 321 320 323 323 325 326 324 324 322 322 319 319 320 321 322 321 320 320 319 320 320 320 321 320 321 319 318
315 315 315 314 308 310 312 312 311 311 313 314 314 315 316 318 317 318 323 323 319 317 318 322 324 322 321 322 319 320 316 320 318 317 317 315 315 315 314 316 318 317 318 318
315 315 315 315 309 311 309 311 310 308 311 313 313 315 316 316 315 315 316 317 319 316 312 310 310 312 314 317 318 317 317 314 314 315 314 315 317 315 313 313 313 313 314 314
315 315 315 315 313 308 311 311 310 310 312 311 314 315 314 314 313 315 312 312 314 311 308 309 309 307 308 309 308 311 316 315 314 315 316 319 317 315 315 314 315 313 313 312
314 315 315 315 314 308 308 309 309 308 310 310 312 313 312 311 308 310 310 307 306 305 309 311 313 312 314 313 313 313 309 312 314 317 318 317 319 315 317 317 317 314 315 314
313 314 315 315 315 312 313 310 311 308 310 312 311 310 311 309 308 308 306 304 304 308 310 314 319 319 318 316 317 313 311 309 312 309 315 319 318 315 314 313 316 317 316 316
311 313 314 315 315 314 315 312 310 312 312 310 311 312 311 308 308 306 305 306 307 307 312 317 316 319 312 318 317 318 313 312 313 314 316 315 314 314 314 318 315 315 316 315
310 311 313 314 315 315 315 313 310 312 313 312 310 309 308 306 308 310 307 310 309 310 314 314 313 314 313 314 315 316 316 312 314 313 314 316 314 315 318 313 312 313 313 313
309 309 310 313 314 314 314 313 312 311 311 313 311 312 312 308 309 306 305 312 309 310 311 310 308 311 308 311 317 312 315 315 317 314 314 312 311 311 309 309 310 309 310 309
308 309 310 311 312 313 314 313 312 312 311 311 310 313 313 312 309 309 309 308 309 309 311 312 313 316 309 314 313 315 313 312 314 314 314 313 312 307 307 307 307 307 308 307
306 307 309 310 311 312 312 312 312 311 310 315 315 312 312 312 313 310 310 308 309 309 310 312 312 316 313 315 313 312 311 313 313 313 312 311 311 309 308 307 305 304 302 302
305 306 308 310 311 311 311 312 311 311 313 315 313 311 309 311 312 313 310 309 310 309 310 311 311 311 313 312 309 309 310 312 312 313 310 309 309 308 305 305 305 302 300 298
304 305 306 308 309 311 311 310 310 311 311 312 309 310 307 309 311 312 311 310 309 310 310 310 310 309 312 311 313 309 308 309 309 310 308 306 305 302 301 302 300 298 297 297
303 304 305 307 309 310 309 310 307 310 310 311 310 311 306 306 309 308 309 309 309 309 310 310 310 309 311 312 311 309 308 308 307 306 306 307 303 303 297 297 296 295 295 295
302 303 304 307 308 307 307 307 307 309 309 308 306 309 308 305 309 310 308 310 309 309 310 309 311 309 310 312 308 308 307 306 306 302 301 302 297 295 296 294 294 292 291 291
302 303 305 307 306 305 304 306 307 308 308 307 306 309 311 304 308 308 307 308 309 308 311 310 310 311 311 309 307 307 306 307 306 297 296 295 296 296 295 293 292 290 291 290
303 306 305 303 301 303 303 304 304 303 303 302 307 306 307 306 308 307 306 304 306 308 307 306 307 310 307 305 305 304 303 301 298 298 296 296 297 296 295 291 293 293 292 289
304 302 300 299 301 302 301 303 304 305 306 304 304 304 305 301 307 305 304 305 305 306 305 307 306 305 302 302 301 297 294 296 297 297 297 296 296 295 296 293 292 291 287 285
304 300 300 300 299 300 301 303 301 304 305 303 304 303 303 301 300 304 303 305 303 304 302 303 304 300 301 299 297 296 295 296 296 295 295 294 294 293 292 291 288 286 286 285
301 298 298 297 299 301 301 301 303 304 301 299 300 302 301 300 301 303 304 304 304 297 302 302 299 299 298 296 294 294 293 294 293 292 292 292 294 293 291 286 286 286 285 285
300 300 302 297 296 296 294 295 297 296 295 297 299 299 301 298 303 301 303 304 299 301 302 299 298 298 297 294 293 294 294 294 292 291 289 287 286 285 286 286 285 285 284 285
300 299 296 296 293 293 287 288 291 290 292 296 296 298 298 300 301 301 300 301 302 300 298 297 294 294 293 292 292 292 292 291 290 288 286 285 285 284 284 285 285 285 285 284
298 297 298 297 297 296 290 291 289 290 291 290 292 299 299 300 300 301 302 302 299 297 294 291 286 293 292 290 289 289 290 290 290 289 287 286 284 283 284 285 285 285 284 284
298 299 293 290 294 296 293 292 291 293 293 293 295 297 295 293 300 299 295 297 296 292 290 287 288 290 291 289 288 288 290 290 290 290 288 286 286 285 284 282 284 284 284 283

GFSNW_925_thetae_012.txt.gz
Theta_e
315 315 314 309 307 306 310 311 318 316 315 320 318 324 325 324 326 325 327 324 326 327 329 327 327 327 325 322 323 325 323 317 319 320 317 315 315 316 314 317 318 314 314 317
315 315 315 310 308 307 308 311 313 317 318 325 320 320 321 322 324 324 326 329 327 327 328 329 326 325 322 322 323 324 323 324 325 326 322 320 321 316 314 315 316 319 319 318
314 315 315 313 310 307 309 310 318 314 311 313 319 321 322 322 320 322 322 324 324 325 325 324 325 325 323 320 321 320 320 321 323 326 324 321 323 323 318 316 318 317 318 318
314 315 315 315 312 307 310 307 312 314 318 317 316 317 319 321 321 320 321 324 323 325 325 323 323 322 321 319 318 318 319 322 320 319 319 319 320 321 321 320 317 318 318 318
314 315 315 315 311 309 309 310 311 309 312 312 314 313 316 318 317 319 323 319 317 317 320 319 324 322 321 321 318 319 316 320 317 314 314 314 316 315 315 317 319 318 318 318
314 314 315 315 312 311 307 308 308 306 309 310 312 314 315 316 316 315 313 316 314 312 311 310 310 313 314 316 318 317 316 314 313 314 314 314 314 313 313 312 311 313 314 312
313 314 315 315 313 309 310 310 308 307 311 311 313 314 313 313 313 315 310 312 313 311 306 308 307 307 310 311 311 311 314 313 312 314 315 319 315 313 314 313 313 313 312 312
313 314 315 315 314 310 309 310 307 306 309 310 312 312 311 309 307 309 308 306 305 304 308 311 313 313 315 313 313 312 309 311 314 317 317 316 318 315 315 317 316 314 315 315
311 314 315 314 315 313 312 310 311 306 308 310 310 310 309 308 307 307 306 304 303 307 310 316 317 318 318 316 317 310 308 308 312 309 316 320 317 314 313 313 314 315 315 315
311 312 314 315 315 314 314 311 312 310 309 308 309 308 310 306 305 306 305 306 307 307 311 315 313 319 313 317 318 315 310 309 312 314 314 314 312 312 313 318 312 312 312 312
309 311 312 314 315 314 315 311 311 312 310 310 310 309 307 306 306 311 306 310 309 309 314 315 314 314 312 314 313 314 313 311 311 311 313 314 312 314 318 311 311 310 309 309
308 309 310 313 314 314 314 313 311 313 310 311 311 312 311 307 308 304 303 311 308 309 313 311 309 311 307 310 316 310 316 314 314 312 312 310 310 310 309 308 309 309 309 309
307 308 310 311 313 314 314 313 312 313 309 310 310 313 312 311 309 309 308 307 308 310 309 308 310 314 308 312 311 314 312 309 313 314 313 310 309 308 307 307 307 307 307 307
307 307 309 310 311 313 313 313 311 311 308 312 315 311 311 311 312 310 309 308 309 309 310 312 313 317 309 311 312 311 310 312 312 312 311 310 307 307 306 306 305 305 303 303
305 307 308 310 311 312 312 312 311 312 310 314 314 310 309 310 312 311 309 309 309 309 311 312 314 312 312 307 307 311 308 311 312 312 309 309 308 307 305 305 305 303 302 300
305 306 307 309 311 311 312 311 311 311 311 310 307 309 306 309 312 310 310 309 309 310 311 310 310 309 309 310 312 308 306 307 308 309 307 305 305 301 301 302 300 298 298 297
304 305 306 308 310 310 308 309 307 311 311 309 308 311 306 306 309 308 309 308 309 310 310 310 310 310 309 309 311 307 307 306 307 305 305 306 304 305 297 297 297 297 296 297
304 305 306 309 309 308 307 306 308 310 309 308 306 309 308 305 310 311 308 309 309 309 309 309 311 309 310 311 307 307 306 306 304 302 300 300 297 294 296 295 294 293 292 290
303 304 307 307 306 305 304 307 308 308 307 307 306 309 311 305 308 308 308 308 310 308 311 310 309 309 311 309 306 307 305 306 304 298 297 295 293 296 295 294 294 292 291 290
304 306 304 303 302 304 305 304 304 302 303 303 308 306 309 306 308 307 306 304 307 309 308 307 309 309 306 305 305 304 303 303 298 296 295 295 292 295 296 295 293 290 291 290
305 302 300 300 302 302 300 302 303 304 306 305 305 306 307 303 306 306 304 304 304 304 302 307 306 304 302 299 300 298 294 298 297 297 296 295 296 295 295 296 291 292 291 287
303 300 300 300 299 300 302 304 301 304 301 303 305 304 303 301 301 303 303 304 303 304 303 304 304 301 300 299 296 294 294 295 295 296 296 295 294 294 293 292 291 291 289 286
301 299 299 300 299 302 301 302 301 302 300 300 301 302 302 301 301 303 304 304 304 300 303 300 299 297 297 295 294 294 293 294 294 293 293 293 293 294 293 291 291 289 286 285
300 301 302 299 299 298 297 294 295 295 297 300 300 300 302 300 303 302 305 303 300 302 303 298 297 297 296 294 293 293 293 291 291 290 289 288 290 290 291 289 287 285 284 284
299 299 300 297 290 292 288 287 292 292 296 299 298 297 297 300 301 300 301 301 302 299 299 296 294 294 294 293 291 290 290 290 290 289 287 287 286 284 284 285 284 284 284 284
297 296 295 295 298 295 287 284 295 292 294 290 291 298 298 299 298 301 299 299 299 298 293 290 285 291 291 291 290 289 289 289 289 289 289 288 285 284 284 284 284 284 284 284
298 298 293 290 292 295 292 290 289 292 291 293 292 292 293 296 297 294 294 298 297 293 289 287 288 291 292 292 291 288 288 288 289 289 290 288 287 285 283 281 284 284 284 284

GFSNW_925_thetae_015.txt.gz
Theta_e
315 314 315 314 310 306 309 308 317 314 313 320 321 327 327 323 324 325 327 322 323 325 324 326 328 326 323 321 320 324 319 315 317 317 316 313 314 313 312 317 318 312 313 316
315 314 315 314 312 308 307 309 311 313 314 325 322 323 325 324 325 326 327 325 326 323 326 329 325 324 321 322 322 324 320 320 323 324 320 318 319 314 313 313 314 315 317 317
315 314 314 314 313 309 309 309 317 312 311 312 321 323 324 325 321 324 324 326 326 324 324 322 324 324 322 320 320 320 319 320 318 320 321 319 321 318 314 316 317 316 315 317
314 313 314 314 314 308 309 305 311 312 317 317 318 318 321 322 326 322 323 325 327 325 326 323 324 322 320 319 318 317 317 321 319 316 318 319 320 320 316 316 315 317 317 316
313 313 314 314 314 308 309 309 310 308 310 311 314 314 318 319 318 321 325 326 319 323 322 319 324 321 321 322 318 317 314 319 316 314 313 314 317 317 319 319 318 316 318 318
312 313 313 314 314 309 306 306 307 306 309 310 312 314 315 317 315 314 314 317 314 314 312 310 310 312 312 314 317 316 314 313 312 316 314 314 312 312 312 312 312 315 315 312
312 313 313 314 313 309 310 309 307 307 311 310 312 313 313 315 313 315 310 311 313 310 306 306 309 310 312 312 312 311 313 312 311 313 315 315 313 313 313 312 313 312 314 313
311 312 314 314 314 310 309 309 306 305 310 309 311 310 309 308 307 308 308 306 304 304 308 312 314 314 314 313 312 309 309 311 314 317 316 315 317 315 312 315 317 314 315 314
311 311 314 313 314 313 310 310 310 304 309 310 309 309 309 309 307 307 306 304 303 306 311 316 317 318 317 317 316 308 308 309 315 312 319 323 317 314 313 311 319 312 314 313
310 311 313 314 314 314 314 310 311 308 307 307 308 308 309 304 305 305 305 306 307 307 313 314 314 319 313 318 317 313 310 310 314 316 316 315 312 312 312 318 313 311 311 311
309 310 312 314 314 314 315 311 312 311 307 308 309 308 306 305 305 310 306 310 309 308 315 314 314 314 312 314 312 311 311 310 312 312 314 317 311 313 316 310 309 309 308 308
308 309 310 313 314 314 314 313 311 312 308 309 310 311 310 307 307 303 302 310 307 309 310 310 308 311 307 311 317 309 317 312 313 311 312 309 309 310 308 307 308 309 309 308
308 308 309 311 313 314 314 313 312 312 308 309 309 311 311 310 309 308 308 306 306 310 307 308 309 313 307 312 311 312 311 308 312 313 310 310 309 307 308 308 308 308 306 306
307 308 309 310 311 313 313 313 312 311 307 312 314 311 310 310 312 309 309 307 308 307 308 311 312 315 307 309 311 310 309 309 311 311 310 307 308 308 307 306 305 305 302 302
306 307 309 309 311 312 312 312 311 311 310 315 314 309 308 310 312 309 309 308 308 308 310 312 315 312 312 307 308 311 307 310 312 312 308 308 307 305 305 304 304 304 302 300
305 307 308 310 311 312 311 308 311 311 311 310 308 308 306 309 309 309 308 308 308 308 310 311 310 309 309 309 307 307 305 306 307 309 306 305 304 302 302 302 299 297 296 297
305 306 309 311 311 311 307 307 306 311 311 309 309 310 306 306 308 308 309 308 309 310 310 311 310 310 308 309 311 307 306 305 306 304 303 305 303 302 296 296 296 297 295 295
305 306 308 310 309 308 306 307 310 310 309 305 306 309 307 306 310 311 308 310 309 309 309 309 311 309 309 308 306 306 305 303 302 300 298 298 295 294 294 295 295 295 294 293
305 307 308 307 306 305 305 307 309 308 307 307 306 309 310 305 308 308 308 307 310 308 311 310 308 310 309 307 305 305 305 305 302 297 296 295 294 293 295 295 294 294 293 290
306 306 304 304 302 306 306 305 305 301 304 304 307 305 309 307 308 306 306 304 307 310 308 307 309 310 306 303 303 303 302 301 297 297 297 293 295 291 293 294 294 294 292 289
305 302 301 300 302 302 301 303 305 305 306 306 306 305 306 303 307 306 304 304 303 306 306 309 306 301 299 298 298 297 295 297 297 297 295 295 295 294 293 293 294 292 290 289
303 301 301 301 299 299 303 305 301 304 302 302 305 304 304 302 301 304 302 304 302 303 301 305 301 297 299 297 297 294 293 294 295 296 296 295 294 294 293 292 291 291 292 290
301 299 301 301 300 302 303 303 302 302 299 301 301 303 302 301 302 303 303 304 303 299 304 303 298 296 296 294 293 293 293 294 294 293 293 293 293 294 293 292 292 292 290 288
299 300 301 301 301 299 298 294 296 294 300 302 302 301 303 301 303 303 304 301 301 301 295 296 296 296 295 293 292 292 292 291 291 290 290 290 290 291 293 292 292 290 286 286
298 299 303 299 289 289 288 289 296 295 300 299 299 298 298 300 302 300 301 302 302 300 295 293 293 293 293 293 293 292 292 289 289 289 288 288 288 287 288 289 288 287 286 284
296 296 293 294 291 294 293 291 296 294 296 294 294 296 299 300 300 302 302 300 296 295 292 289 284 291 291 292 292 290 289 288 288 288 289 289 287 285 285 286 285 284 284 283
298 298 293 287 285 293 294 294 297 294 300 297 293 293 295 297 298 297 294 295 294 290 287 285 287 289 290 291 292 291 290 288 288 288 289 289 289 287 284 281 283 284 283 283

GFSNW_925_thetae_018.txt.gz
Theta_e
313 315 314 315 314 311 307 306 316 313 313 318 321 327 325 322 325 324 324 324 322 319 323 323 324 323 323 321 320 318 314 312 316 316 314 311 311 312 313 318 318 311 313 316
313 314 314 314 314 311 307 308 311 312 312 325 324 324 325 324 325 326 325 323 322 319 321 325 326 324 321 320 320 321 317 317 322 323 320 318 316 313 311 311 311 312 316 317
312 314 313 314 314 312 308 307 314 315 314 315 320 324 326 326 323 324 324 323 321 323 324 323 325 325 322 320 321 321 318 317 316 321 319 317 319 314 312 314 315 315 313 316
312 313 313 313 314 312 308 305 310 311 317 317 318 320 323 325 327 323 322 326 324 324 324 324 324 321 320 319 320 317 318 321 318 315 318 317 317 317 313 315 314 318 318 314
311 312 313 313 313 310 308 308 309 307 311 311 315 315 319 322 317 322 325 326 320 321 323 322 323 320 320 320 317 317 314 319 315 314 313 316 319 319 313 314 314 314 315 316
310 311 312 312 313 309 305 304 305 307 309 310 313 315 319 319 316 317 319 318 320 316 313 310 311 312 312 315 317 315 314 313 315 318 313 313 315 311 316 315 315 315 318 314
310 311 312 313 313 311 309 307 305 307 311 311 312 313 314 317 314 317 314 314 315 311 307 309 311 311 312 311 310 310 312 310 311 312 313 312 313 313 310 312 312 311 311 313
309 310 312 313 313 311 307 308 306 305 309 309 310 311 310 308 307 308 309 307 305 305 308 317 318 318 314 313 309 308 309 311 314 314 313 314 317 312 313 315 317 314 314 313
309 310 311 314 313 312 308 310 308 303 308 309 308 309 308 310 308 307 306 304 302 307 313 315 318 323 317 315 314 308 309 309 313 314 321 320 316 313 311 314 319 313 312 312
309 311 311 313 314 313 313 310 310 305 306 306 307 308 309 305 305 306 306 306 308 307 313 316 318 318 313 317 317 312 311 310 313 316 317 314 312 312 311 318 316 311 310 309
309 310 310 313 313 313 312 311 311 309 306 308 309 307 306 305 306 310 306 310 308 309 316 315 314 314 312 314 312 310 311 311 313 313 314 318 310 313 315 310 308 308 307 307
309 309 310 312 314 314 313 311 311 310 306 308 309 310 309 306 306 303 303 309 307 308 311 310 309 312 308 312 318 309 316 311 313 313 314 309 308 310 307 307 307 307 307 306
308 308 309 310 313 314 314 312 311 310 307 308 308 311 310 310 309 307 309 306 305 308 305 306 308 313 306 313 312 312 310 308 312 312 311 310 308 307 307 307 307 306 305 305
308 308 308 310 312 313 313 312 312 310 309 313 313 310 308 310 311 308 308 307 306 306 307 310 312 313 306 309 310 310 309 309 310 310 308 308 308 307 306 305 303 302 301 301
307 307 309 310 311 313 313 312 311 311 311 315 314 309 308 310 309 308 308 306 306 307 310 314 314 310 310 305 306 310 306 309 311 312 308 308 307 305 304 304 304 302 300 299
307 307 309 309 311 312 311 309 311 311 310 310 310 307 307 309 309 309 307 307 306 306 308 307 307 307 308 308 308 307 305 305 305 308 305 303 302 300 301 300 298 297 296 297
306 307 308 309 311 311 306 306 307 310 309 309 309 310 307 306 309 308 309 308 309 309 309 308 309 310 307 307 306 307 304 304 303 302 302 304 302 301 296 296 295 297 295 295
306 307 310 311 309 307 305 307 310 309 307 304 306 308 309 306 310 311 308 310 310 309 310 309 310 309 309 311 306 305 303 301 300 298 297 299 294 293 294 295 295 296 296 295
306 309 308 308 306 306 306 308 309 308 307 306 306 308 307 306 308 308 307 307 310 308 311 311 309 311 311 308 305 304 303 303 300 295 295 294 294 295 296 296 295 294 294 293
307 307 304 303 302 307 307 306 304 302 303 304 306 303 310 306 307 307 307 304 308 310 309 308 310 309 306 303 302 302 302 299 296 296 294 295 294 294 293 292 291 291 292 292
306 302 301 301 302 302 298 302 306 304 305 305 305 303 307 303 307 306 303 304 303 307 306 310 304 303 299 297 297 297 295 296 298 297 295 295 294 292 292 292 291 292 293 291
303 301 301 301 298 300 299 300 300 305 306 303 306 305 303 302 301 303 301 304 296 306 302 307 300 297 297 296 295 294 294 295 296 295 294 293 294 293 292 292 292 292 292 292
302 300 301 303 300 301 305 306 304 300 298 302 302 303 303 302 301 300 300 304 304 300 304 305 299 293 295 294 292 292 292 293 293 293 293 293 293 293 293 291 292 292 291 291
299 300 301 303 301 301 301 296 296 294 300 302 303 301 304 302 303 303 304 301 302 303 302 297 293 294 294 292 291 291 292 292 292 292 291 291 290 290 292 292 292 291 289 290
299 300 304 300 290 291 287 289 296 297 301 300 300 299 300 300 302 299 296 302 302 302 295 294 292 293 292 292 291 291 290 289 289 289 288 288 289 287 288 290 291 290 288 286
296 295 295 293 292 293 293 295 298 296 299 296 298 298 299 299 299 302 296 295 295 295 291 288 286 291 291 291 290 290 289 288 288 288 288 288 288 287 287 287 286 285 285 284
298 298 293 287 283 289 294 296 298 295 299 297 294 298 300 297 300 300 293 294 293 289 286 287 289 289 290 290 291 291 290 289 288 288 288 288 289 288 286 282 285 284 283 282

GFSNW_925_thetae_021.txt.gz
Theta_e
313 313 314 315 314 314 307 305 313 313 311 317 313 317 315 316 321 316 315 318 317 314 313 319 319 320 320 316 319 318 313 313 317 316 314 315 313 315 315 321 318 312 315 320
312 313 313 314 314 314 307 306 314 313 313 320 318 314 320 322 321 323 321 323 319 316 316 317 320 320 317 318 320 316 314 316 321 324 323 317 315 311 312 312 312 314 319 320
312 312 313 314 313 313 308 305 316 315 314 315 320 325 325 323 324 324 324 322 317 320 322 321 323 323 321 319 321 320 316 315 318 323 321 317 317 313 311 316 316 316 314 316
312 311 312 314 313 313 309 304 309 313 316 318 317 322 324 326 328 324 323 322 317 321 324 324 324 321 320 320 321 318 317 320 316 314 315 316 316 316 312 315 316 319 317 314
312 311 311 312 313 312 307 307 307 305 311 311 316 318 322 325 320 321 325 323 320 320 322 322 323 320 321 322 317 318 314 319 314 315 314 317 319 316 313 313 312 314 314 315
311 311 311 312 313 313 305 304 304 305 310 311 316 317 321 323 318 318 318 319 318 316 314 314 314 314 314 318 316 315 317 313 316 319 312 312 318 314 314 314 312 314 316 316
311 310 310 312 313 312 308 306 304 306 312 311 312 313 318 317 317 322 316 313 317 311 307 310 312 312 312 316 310 312 320 315 315 313 311 317 316 311 313 314 312 312 310 309
310 310 310 312 313 313 311 307 306 304 310 310 311 312 310 308 307 311 313 309 305 306 311 321 323 321 320 313 309 310 309 312 313 316 313 314 315 312 312 314 314 313 313 311
310 309 310 311 313 313 312 308 308 302 309 311 308 309 309 309 307 308 307 304 304 307 315 317 324 326 323 316 313 307 308 310 316 314 317 318 314 313 310 313 318 313 312 311
310 309 310 311 313 313 312 309 309 304 307 306 306 308 310 305 305 307 305 305 309 307 316 318 318 317 315 318 314 313 313 310 313 317 317 315 312 311 310 319 317 311 311 310
310 309 310 311 313 313 312 310 310 307 306 307 308 306 305 305 306 308 305 309 308 311 318 317 316 315 312 314 311 311 313 313 313 313 315 316 309 312 315 311 308 308 307 307
309 309 310 310 313 313 312 310 309 310 306 308 308 309 307 305 305 303 303 308 307 308 311 310 309 311 308 312 317 309 314 311 313 313 313 309 308 310 306 306 307 307 306 305
309 309 309 310 312 313 313 312 310 308 307 310 308 310 310 310 309 306 309 306 305 307 305 306 308 313 307 313 312 312 310 308 311 311 310 309 307 306 306 306 306 305 304 304
309 309 309 309 311 313 313 311 311 310 306 313 313 309 308 310 309 307 307 305 306 305 306 309 310 311 304 308 309 310 308 308 309 309 308 308 308 307 305 303 302 302 300 301
308 308 308 309 311 312 312 312 311 311 312 314 313 308 308 308 308 307 307 306 306 307 310 311 313 307 307 304 305 308 305 308 311 312 308 309 308 304 303 303 303 301 300 299
308 308 308 309 310 312 311 312 310 310 310 311 312 307 307 308 309 308 307 306 305 305 307 306 307 308 308 307 308 307 304 304 305 308 303 302 301 300 301 300 299 298 298 297
307 307 308 310 311 311 308 307 307 310 309 309 309 310 307 306 309 308 309 308 309 308 307 307 307 308 307 308 306 306 304 305 303 301 302 303 302 302 297 297 296 297 294 295
307 308 309 310 310 308 306 308 308 308 305 305 306 308 309 306 311 311 307 310 310 309 310 309 311 309 309 311 307 304 302 300 300 299 296 300 295 294 294 295 296 296 296 296
307 309 309 307 306 306 307 309 308 307 306 304 305 309 310 306 308 308 307 307 311 308 311 311 310 311 308 309 304 302 300 303 299 295 295 295 296 295 295 295 296 294 292 293
308 307 304 305 303 307 308 306 304 302 303 304 305 303 310 307 308 307 307 305 308 311 310 308 310 311 306 304 303 303 301 298 297 299 298 297 297 296 295 293 291 291 291 292
305 302 301 301 303 302 299 303 300 303 301 305 305 303 307 303 307 307 303 305 302 309 308 310 307 306 302 298 299 298 296 297 297 298 297 296 296 293 292 292 291 291 291 292
303 302 302 301 299 298 299 297 302 304 302 305 306 304 302 302 297 303 301 300 292 300 302 308 306 299 297 295 295 295 295 295 295 294 292 292 292 291 291 291 291 291 292 292
303 301 300 302 299 303 300 305 304 304 301 302 302 304 302 301 296 295 295 295 296 298 304 306 301 295 295 293 292 292 293 294 292 291 292 292 292 293 293 291 292 292 291 291
300 301 304 304 303 301 299 298 297 296 300 303 302 302 304 301 298 302 303 298 300 302 300 297 294 293 293 291 290 291 291 292 291 291 290 290 290 291 292 292 292 291 290 290
299 300 305 301 292 292 286 288 297 298 302 301 300 296 299 300 302 301 301 302 303 302 296 293 291 292 292 291 291 290 290 289 289 288 288 288 289 288 288 289 290 290 289 288
297 296 295 293 292 293 294 294 299 296 300 297 296 294 294 298 297 301 294 298 298 295 292 288 287 292 292 291 291 289 288 288 287 288 288 288 288 287 287 287 286 286 286 286
298 297 292 288 284 291 295 294 298 296 299 297 293 298 299 294 294 300 292 294 294 290 288 288 289 291 291 290 289 289 288 288 288 288 288 288 288 287 286 283 284 284 283 282

GFSNW_925_thetae_024.txt.gz
Theta_e
314 313 313 313 315 314 310 310 315 313 311 312 312 312 314 313 316 315 314 315 313 313 314 315 316 317 317 315 317 321 320 319 324 322 316 320 324 326 327 332 326 322 323 325
314 313 312 313 314 314 306 310 315 312 311 318 314 313 314 315 314 318 316 317 314 313 313 316 318 317 314 317 319 322 321 321 325 324 322 316 323 318 326 323 319 325 327 325
313 313 312 312 314 314 309 312 318 316 313 315 317 316 316 316 316 317 314 320 316 313 313 315 318 321 318 319 319 321 316 320 324 325 324 323 325 327 319 324 329 325 323 324
313 312 312 312 314 314 308 310 315 316 317 315 317 317 322 319 322 320 319 321 319 313 313 316 320 321 322 320 319 320 322 322 320 321 323 321 322 325 326 320 323 325 324 322
313 312 311 311 314 313 308 312 312 309 316 317 318 318 322 325 323 323 325 322 320 317 318 316 321 323 322 324 322 321 320 322 319 319 319 321 321 321 325 323 321 322 322 322
313 312 311 311 312 312 308 306 306 310 314 314 319 321 322 324 319 319 318 320 319 321 323 320 321 321 321 322 323 322 322 322 322 325 317 320 322 321 320 321 320 320 322 322
311 312 311 311 312 313 310 306 309 312 314 314 317 314 320 321 320 322 315 318 320 314 312 316 319 319 319 322 320 320 323 322 322 321 317 329 322 315 319 320 320 319 318 317
309 312 311 310 311 313 311 308 309 312 315 313 314 313 315 312 312 313 315 310 308 309 313 323 324 323 321 317 313 314 318 320 321 326 322 322 316 315 316 319 321 316 317 315
311 311 310 310 311 313 312 311 307 308 311 314 311 311 312 314 312 312 310 307 306 312 320 325 327 327 324 321 318 310 312 313 325 320 323 330 319 315 314 316 321 316 315 316
312 310 309 310 311 312 312 309 308 308 311 309 308 312 313 310 313 312 308 310 313 311 320 321 323 322 320 322 320 320 315 314 324 326 326 320 315 314 314 319 321 315 315 315
310 310 309 309 311 312 312 310 309 310 310 311 310 307 308 308 311 317 308 313 312 315 320 322 321 320 321 318 316 319 319 322 320 322 323 326 314 313 319 317 315 314 314 313
307 310 309 309 311 312 312 310 309 309 310 312 308 309 307 305 306 308 305 313 312 316 317 317 315 316 314 318 318 311 319 322 320 319 320 313 311 313 311 314 314 312 312 310
306 310 309 310 311 312 312 311 308 308 313 313 312 312 310 309 308 306 313 311 309 311 310 314 315 320 315 320 319 315 312 311 315 314 313 312 311 309 310 311 311 309 309 309
307 309 309 310 310 312 312 311 310 310 312 316 314 309 309 309 307 307 307 308 308 309 311 316 317 319 309 317 315 317 314 313 313 313 311 311 310 310 309 308 307 307 306 307
309 309 309 309 310 312 312 311 311 311 314 317 314 309 308 308 307 307 308 309 311 313 317 319 320 312 313 310 312 316 312 315 318 319 314 315 313 309 308 308 308 307 305 304
310 309 309 309 309 311 311 312 310 311 310 314 316 309 309 309 309 310 310 310 310 311 316 314 313 310 314 321 321 314 311 309 310 314 312 309 311 308 307 307 306 304 305 304
309 309 308 309 310 310 309 311 308 310 309 310 310 313 308 307 310 310 312 311 312 314 312 314 314 313 313 315 322 312 310 310 307 307 307 307 308 308 304 304 302 300 299 299
308 308 308 310 311 308 308 308 308 308 306 306 307 310 311 307 312 314 309 313 313 312 313 312 315 312 313 318 314 308 308 307 306 304 302 308 303 302 301 300 299 300 300 299
308 308 310 308 307 307 307 308 307 307 307 307 308 312 314 307 309 309 308 309 313 309 314 314 313 315 317 318 313 308 307 308 306 300 300 301 301 297 297 298 299 300 298 297
308 309 306 306 305 308 308 306 309 304 304 305 309 307 312 308 308 308 309 307 310 313 311 309 312 315 312 309 307 308 306 303 302 301 300 299 298 298 298 299 299 298 296 295
306 303 303 302 305 303 302 306 309 306 307 307 307 307 309 305 310 309 305 308 307 313 311 313 312 311 309 305 304 304 301 301 303 304 303 302 301 300 299 296 295 295 294 295
303 303 302 301 301 302 306 306 304 306 307 306 307 306 306 304 302 306 304 306 303 310 305 310 311 308 300 302 301 301 300 300 299 300 301 300 300 297 296 295 295 294 294 294
303 302 304 304 301 305 306 306 305 308 305 303 303 305 304 302 302 301 303 306 307 302 308 309 308 299 298 298 299 299 299 297 296 295 295 295 294 294 295 295 294 294 293 293
300 301 306 306 306 306 304 304 304 302 303 304 304 303 304 302 305 304 305 301 302 305 304 304 301 298 297 295 296 299 297 295 294 294 294 294 294 294 293 293 293 292 293 291
300 302 307 305 296 293 292 294 299 300 303 303 303 302 303 302 303 303 302 303 304 304 303 301 297 296 295 295 296 297 295 293 293 293 293 292 291 292 291 291 290 291 290 289
297 298 298 295 297 295 296 297 301 298 303 300 301 301 302 301 303 302 302 303 303 303 301 297 295 295 294 294 294 294 292 292 291 291 290 290 290 290 289 287 287 288 287 287
299 297 294 293 294 296 296 297 301 298 303 303 302 306 305 299 302 303 299 302 301 297 294 294 296 295 294 292 291 291 290 291 290 289 289 288 288 287 287 288 283 283 282 283

GFSNW_925_thetae_027.txt.gz
Theta_e
308 313 314 313 313 315 313 308 313 311 310 313 312 313 312 312 313 313 315 315 315 315 314 313 314 315 315 313 315 320 320 322 326 324 319 324 327 329 328 330 329 326 326 325
306 313 314 312 313 315 308 311 315 311 310 314 314 312 313 312 315 316 316 315 316 315 314 314 314 315 314 315 315 321 321 322 330 327 324 323 328 327 328 328 326 328 327 327
305 310 313 312 313 314 310 311 317 315 313 313 317 316 316 315 314 314 315 315 316 316 313 313 314 316 315 316 315 321 321 323 323 327 327 325 327 325 326 328 330 328 327 325
305 307 313 312 313 314 312 309 317 315 316 315 315 317 317 320 315 315 315 317 318 316 314 314 317 317 317 318 318 319 322 324 322 323 324 326 327 327 324 327 327 329 327 325
304 306 313 312 312 314 309 311 312 315 318 315 316 316 318 319 317 317 317 319 318 316 313 313 317 319 318 321 318 319 321 325 322 323 321 323 324 326 327 326 325 325 326 325
304 306 313 312 312 313 310 308 307 312 315 317 319 320 319 322 321 320 319 316 320 317 312 313 316 318 318 321 320 320 322 324 323 324 320 322 324 323 323 325 327 325 326 324
302 304 311 311 312 313 311 307 309 313 313 312 315 319 319 322 321 322 319 318 320 316 318 318 320 319 320 321 322 321 322 323 323 326 322 328 322 318 321 322 323 324 324 324
303 304 305 311 311 313 311 308 309 313 314 313 316 316 317 315 314 315 318 315 312 317 322 323 324 324 322 319 319 321 321 322 325 326 324 324 323 318 319 322 322 321 321 321
302 303 309 311 311 312 311 310 310 310 313 312 314 313 314 317 316 316 314 311 310 313 322 325 326 327 325 324 319 313 320 322 325 326 329 329 322 317 316 319 324 322 321 320
301 302 312 311 310 311 311 311 311 310 313 312 311 315 314 315 315 314 312 314 317 316 324 328 328 327 323 325 325 322 320 321 326 327 327 326 317 316 316 322 324 317 318 318
300 302 305 310 310 311 311 310 310 311 314 313 311 310 311 310 316 318 312 317 316 319 324 326 324 326 323 324 323 324 322 322 324 325 327 329 316 315 319 319 316 316 317 317
301 303 304 310 310 311 311 310 309 309 314 314 310 310 309 307 307 311 308 313 315 318 320 320 319 319 320 322 323 317 326 324 323 325 325 316 315 316 314 316 316 316 316 314
301 303 306 310 309 311 311 310 308 309 313 315 313 313 311 310 309 308 314 312 312 314 312 317 319 321 318 324 322 319 316 313 319 317 316 315 314 312 313 315 315 314 312 311
301 303 307 310 309 311 311 311 310 311 315 318 316 310 312 310 308 308 309 310 310 311 313 318 320 323 314 320 318 319 316 314 318 316 314 313 312 313 313 312 311 310 310 310
301 303 308 309 310 311 312 311 312 311 316 318 315 312 310 310 309 309 309 311 313 315 318 322 324 314 316 314 315 319 314 316 317 319 316 317 315 313 311 310 310 309 308 308
302 304 310 309 310 310 311 312 311 311 311 316 316 311 311 311 311 312 312 312 313 316 321 320 316 313 317 323 324 318 314 313 313 316 314 314 313 310 310 310 309 308 308 306
304 307 310 310 310 311 310 311 309 310 311 312 314 314 310 310 312 313 314 313 314 317 316 319 318 316 316 319 325 318 313 313 311 311 312 312 311 311 310 308 307 306 305 305
305 310 309 309 310 309 308 308 308 310 307 308 308 313 313 309 314 315 311 316 316 315 317 315 318 314 316 322 319 314 313 311 310 309 308 312 310 308 306 304 304 304 303 302
310 309 309 308 309 308 308 307 308 307 308 308 310 313 317 309 310 311 311 313 319 312 318 318 316 320 319 319 318 312 312 311 309 306 306 307 305 303 303 303 304 304 302 301
309 308 307 307 305 308 307 307 310 308 305 307 313 311 313 309 309 309 311 308 313 317 314 311 315 317 317 314 312 312 311 309 304 303 301 300 300 299 300 302 303 302 300 298
307 304 304 303 305 304 306 308 313 309 310 309 309 311 311 306 312 310 307 310 309 317 314 315 315 315 313 310 309 310 309 305 306 308 305 304 302 302 302 301 299 297 297 297
304 304 303 301 302 304 307 311 306 306 310 308 309 309 309 306 304 308 306 310 308 312 308 312 313 311 303 305 306 306 305 305 304 305 305 304 303 302 299 298 297 296 296 295
303 303 302 306 303 309 309 308 308 308 307 306 306 307 306 305 305 305 307 310 312 305 309 310 310 303 302 303 303 303 301 300 301 300 301 299 297 297 297 297 296 296 296 295
300 303 307 308 307 308 308 308 308 307 305 305 306 305 306 306 307 307 310 305 304 308 308 309 305 302 301 301 301 300 298 297 297 296 296 296 296 296 296 295 295 295 295 293
300 304 310 307 300 297 298 300 302 303 305 305 306 306 304 304 305 306 302 305 307 307 307 304 300 299 299 300 300 296 295 295 296 296 296 295 295 295 293 293 293 293 292 291
297 300 301 298 300 298 297 299 302 302 305 304 307 305 306 303 305 303 305 306 308 307 305 301 299 298 299 300 298 295 294 294 294 294 293 293 292 292 291 290 290 290 290 289
300 299 297 298 300 300 299 301 302 303 306 309 307 309 308 303 304 306 305 306 305 302 299 299 298 297 298 297 293 292 292 293 292 292 292 290 289 289 289 288 284 284 284 284

GFSNW_925_thetae_030.txt.gz
Theta_e
305 305 306 313 313 313 314 309 314 311 310 313 311 312 311 310 312 312 312 314 315 317 315 314 314 314 314 313 315 317 316 321 324 322 320 323 326 330 328 328 327 325 324 322
305 304 305 309 314 313 309 312 314 312 311 314 313 312 312 311 313 313 313 314 314 315 316 316 313 314 313 314 316 318 319 322 326 325 325 325 329 328 329 326 326 327 325 322
304 304 305 306 313 313 312 312 316 314 312 312 314 313 314 315 312 312 313 314 314 317 317 315 313 313 315 315 315 320 321 325 325 331 329 328 330 329 327 327 329 326 324 319
302 302 303 306 313 313 311 311 315 314 314 313 314 315 317 317 314 313 313 313 315 318 317 316 313 313 316 317 316 319 321 325 325 325 325 327 327 328 323 328 327 327 325 321
301 302 303 305 313 313 310 310 312 314 316 313 315 315 316 317 316 314 316 317 316 317 317 313 314 314 317 316 314 316 320 326 323 323 323 325 326 325 323 323 326 325 324 324
301 301 303 303 310 313 311 308 308 311 315 316 317 317 317 319 319 316 315 315 318 317 317 312 313 314 315 316 318 318 321 323 323 323 320 321 324 324 326 325 324 323 325 323
301 301 302 304 313 312 311 308 310 312 313 313 315 316 319 320 319 320 316 316 317 317 314 314 315 317 316 319 316 316 319 322 323 326 322 324 321 317 319 322 323 324 324 322
301 301 302 303 305 312 312 307 310 313 315 315 315 313 317 316 316 316 320 317 315 317 319 316 319 322 322 319 315 319 317 321 324 326 323 322 321 317 319 320 320 319 321 322
301 301 301 303 308 311 312 310 309 310 314 314 313 316 316 318 318 317 313 311 310 314 322 323 321 323 325 324 320 316 319 320 324 324 327 327 319 316 315 319 321 316 317 317
300 300 301 303 306 311 312 311 311 310 313 312 311 314 315 316 316 315 313 315 315 316 324 325 323 323 322 324 325 323 323 324 326 326 328 323 316 315 315 322 322 315 315 316
300 300 301 303 306 311 312 310 311 310 313 313 312 310 313 312 317 320 313 317 318 319 325 325 325 325 322 324 322 322 323 322 323 325 326 325 315 314 319 317 315 315 315 314
300 300 301 304 307 311 311 310 311 310 311 314 311 311 310 308 309 312 310 314 317 320 320 319 319 322 320 322 327 320 325 322 322 323 323 316 314 314 314 315 314 314 312 311
300 301 301 304 307 311 311 310 308 309 312 314 313 313 311 309 308 310 315 312 314 315 311 318 319 320 318 320 320 319 319 319 317 317 315 314 314 312 313 314 313 311 309 309
299 300 301 303 306 310 311 311 309 311 314 317 315 311 311 311 309 309 310 311 311 311 314 318 320 323 313 320 317 317 314 313 315 315 314 312 312 312 312 309 308 308 307 307
299 300 301 303 308 310 311 311 311 311 315 318 315 312 311 310 309 308 309 310 311 314 318 320 321 317 316 314 315 317 312 314 316 318 314 314 312 310 309 309 308 307 307 306
299 299 301 304 310 310 311 311 311 312 310 316 315 311 311 311 311 310 311 312 313 315 319 319 316 313 315 317 319 318 312 312 313 314 311 311 310 308 308 308 306 305 304 304
299 300 303 307 310 311 311 312 310 311 311 313 313 314 310 309 312 312 313 313 314 315 316 318 316 315 314 318 322 316 312 310 310 310 310 309 309 309 306 306 305 305 302 302
299 302 305 310 311 310 309 308 308 310 308 308 309 312 312 309 314 314 310 315 315 313 315 314 317 313 315 317 318 312 310 309 309 306 308 308 306 305 303 301 302 301 300 299
302 305 310 309 309 308 308 309 308 308 309 308 308 312 315 309 310 311 311 311 316 312 317 317 314 318 315 317 316 311 309 309 306 304 304 304 303 301 300 301 300 300 299 297
306 309 307 306 306 309 308 306 308 305 305 307 311 311 312 309 310 309 312 309 312 310 313 309 314 316 315 313 311 309 308 304 303 302 302 301 301 300 300 301 299 299 297 296
308 305 304 304 307 305 306 308 311 309 308 309 309 310 311 307 311 309 306 308 307 314 312 313 314 314 311 305 308 307 303 302 303 304 300 301 300 300 300 298 296 295 295 294
306 304 304 302 303 304 307 309 305 307 308 308 309 310 308 304 305 306 305 308 307 312 307 311 312 307 302 305 306 304 303 303 303 302 302 300 300 299 296 295 294 295 295 295
304 303 304 305 302 309 307 308 306 307 307 305 305 306 304 303 302 302 303 307 308 304 308 310 307 301 302 302 301 299 300 302 302 301 300 297 295 296 295 294 295 295 294 294
301 302 306 308 308 305 305 305 304 303 304 305 304 304 305 303 303 303 301 303 303 306 306 303 302 300 300 302 298 297 298 298 297 296 295 295 294 294 295 295 295 294 292 293
299 302 309 306 300 298 299 300 302 303 304 303 304 303 302 302 300 302 302 304 303 304 304 301 298 297 298 298 296 296 296 296 295 294 294 293 293 292 292 293 293 293 292 291
297 299 301 299 300 298 299 300 302 302 304 301 300 302 301 303 301 302 299 300 302 302 299 295 293 296 298 296 294 294 294 294 293 293 292 292 291 290 289 290 290 290 290 288
299 299 297 299 301 300 300 301 301 304 304 305 303 303 302 302 303 300 299 301 300 294 293 292 294 295 297 294 293 292 292 291 291 290 289 288 288 288 286 283 284 286 285 284

GFSNW_925_thetae_033.txt.gz
Theta_e
301 303 303 305 306 312 314 311 316 310 308 312 310 313 310 309 310 312 312 311 313 315 316 317 314 312 311 311 313 314 315 318 320 322 318 320 321 326 329 326 328 322 318 320
301 303 301 305 305 308 311 313 313 310 310 313 312 312 311 311 312 313 312 312 313 314 317 319 314 312 310 314 314 315 316 319 322 326 324 323 323 325 328 328 326 328 320 319
301 303 302 303 303 306 312 312 315 313 312 312 313 313 314 313 312 313 311 312 312 314 316 315 315 313 312 313 314 318 317 323 322 328 326 327 328 328 327 328 329 327 319 320
301 303 301 302 304 308 310 312 314 312 314 314 314 314 314 315 315 312 312 311 313 315 320 317 315 314 312 314 318 319 319 322 322 321 323 323 327 329 327 328 328 326 317 320
301 302 302 302 303 311 311 311 313 312 312 311 313 314 316 316 315 313 313 312 313 315 318 314 315 315 314 315 317 318 318 322 323 327 327 327 328 327 324 323 326 326 324 324
300 302 302 301 302 305 311 308 308 312 316 314 315 315 314 314 315 316 313 312 313 316 315 314 313 310 312 313 314 317 320 322 326 325 325 326 326 325 324 322 322 324 326 322
299 301 302 301 302 307 310 309 309 312 316 315 315 316 315 314 315 319 316 314 315 317 312 312 313 311 313 315 314 314 319 320 323 325 320 323 318 317 322 323 322 320 322 322
299 301 302 301 302 303 307 308 311 313 315 315 315 315 314 315 316 316 317 315 314 311 312 313 318 319 318 318 317 314 314 319 323 324 322 319 319 317 317 321 321 319 321 320
299 301 301 301 302 304 309 308 311 311 314 315 313 313 315 317 316 317 314 311 309 312 317 315 315 323 318 321 319 317 317 317 323 324 322 324 319 315 313 316 320 316 315 317
299 300 301 300 302 303 307 310 310 310 312 312 313 313 315 315 316 315 313 314 315 316 317 318 318 323 319 322 322 323 323 322 324 324 327 321 317 314 313 321 319 314 313 314
298 300 301 300 302 305 309 311 311 311 312 312 311 309 312 312 314 318 314 316 316 319 320 321 320 321 321 321 319 321 321 324 324 323 324 325 315 314 317 314 313 313 311 310
298 300 301 300 302 305 312 309 311 311 311 313 311 310 310 310 309 314 311 314 315 317 322 320 317 322 318 319 325 316 322 319 320 322 322 315 313 314 313 313 313 312 309 308
298 300 300 300 302 304 312 310 309 309 311 312 312 311 310 310 309 309 315 313 313 314 310 315 316 318 315 320 320 320 318 316 319 320 317 314 312 312 312 312 311 308 308 307
299 299 300 300 302 305 311 311 309 310 312 314 314 311 310 310 309 309 311 311 312 312 313 317 318 320 313 317 314 316 314 316 316 315 313 312 312 311 310 308 307 306 305 305
298 299 299 300 302 306 311 311 310 311 314 317 314 310 310 310 309 308 310 311 312 315 318 319 320 317 316 314 314 315 311 314 316 317 312 312 311 309 307 308 307 306 305 304
298 299 299 300 302 307 310 311 311 311 311 315 313 311 311 310 309 308 309 311 310 314 318 319 317 312 316 318 319 316 311 310 311 314 310 309 308 307 307 306 305 305 304 304
298 298 299 300 303 307 311 311 310 311 311 312 311 313 309 309 310 310 311 311 312 314 314 315 314 313 314 317 320 318 310 309 308 308 309 309 308 307 305 304 303 302 300 300
298 299 300 302 306 310 310 309 309 310 309 309 308 311 312 309 313 311 307 312 312 311 314 312 315 311 313 316 315 310 309 307 306 307 307 307 304 303 302 301 301 300 299 298
298 300 302 306 310 308 308 308 309 309 309 309 308 312 314 309 310 310 309 308 315 308 315 315 313 316 314 315 315 310 307 309 305 303 303 304 303 301 300 300 299 299 297 296
301 303 307 307 307 309 309 308 308 305 305 306 311 310 312 309 309 309 308 307 310 311 312 308 313 315 313 310 310 309 306 304 303 304 302 301 301 301 299 299 298 298 296 295
305 306 304 305 307 306 306 307 309 309 308 308 309 310 310 307 311 310 306 307 307 314 310 313 312 314 310 304 306 304 302 302 302 302 300 301 301 301 299 297 296 295 294 293
306 304 304 303 303 303 307 308 305 307 309 307 309 309 307 305 304 306 304 306 305 311 306 310 312 308 302 303 304 301 300 301 301 300 300 300 299 297 296 295 294 293 293 292
306 303 305 305 302 308 308 309 306 306 306 303 303 306 303 301 299 298 301 305 305 301 307 309 306 300 301 300 299 299 300 300 300 300 299 298 295 295 295 293 293 293 292 291
299 300 306 307 306 306 306 301 300 299 303 304 303 302 301 300 301 300 296 304 301 301 305 302 300 298 299 300 296 298 298 298 297 297 296 295 294 293 293 293 292 292 291 291
299 300 308 306 299 297 298 298 302 301 303 302 301 299 299 295 297 298 301 303 303 302 302 300 296 296 298 296 295 296 296 296 295 295 294 293 293 292 291 292 292 291 291 290
297 296 300 299 299 298 299 300 302 299 302 298 298 301 298 300 295 300 294 297 298 300 298 291 291 295 294 293 294 293 294 294 294 293 292 292 291 290 288 290 290 289 289 287
298 296 296 297 295 297 299 299 300 302 299 300 300 296 298 298 296 295 293 296 297 293 290 289 292 294 293 292 293 293 292 292 291 290 289 288 287 287 286 284 283 284 284 284

GFSNW_925_thetae_036.txt.gz
Theta_e
298 301 301 302 303 304 309 312 308 309 309 311 309 311 311 309 312 312 312 311 312 315 316 316 317 315 311 309 310 312 310 314 317 316 313 314 319 320 320 324 325 321 321 320
298 300 301 302 303 304 306 312 312 309 310 311 311 311 311 310 311 312 312 313 312 312 315 317 314 314 311 310 310 312 313 318 318 318 319 319 321 321 318 317 321 326 321 320
298 299 301 303 302 303 306 312 312 311 312 312 312 312 313 312 311 311 312 312 312 313 315 315 316 314 311 311 313 315 315 317 319 321 323 320 321 320 317 315 328 325 321 319
298 299 300 303 302 302 309 312 313 310 312 311 312 312 314 314 314 312 312 311 312 313 316 316 315 313 313 314 315 316 316 320 319 317 316 319 320 324 327 328 328 325 321 320
298 299 300 303 301 302 310 312 314 311 312 312 313 314 315 315 315 314 314 314 312 312 315 315 314 313 312 314 316 318 316 318 317 319 322 326 328 328 328 324 328 327 324 321
297 299 300 302 300 303 310 308 308 312 312 313 313 314 313 314 314 314 314 312 312 312 312 313 312 311 311 311 317 317 319 319 321 325 324 326 327 326 324 321 322 326 327 323
296 298 300 302 300 302 305 306 309 313 316 314 314 314 313 314 314 315 315 315 312 312 312 310 311 312 313 312 313 315 318 319 323 326 322 326 319 316 322 323 322 321 321 317
296 298 300 302 300 301 304 307 309 311 315 314 314 314 314 314 314 315 316 315 314 312 311 313 315 317 318 318 316 314 314 318 324 326 323 319 318 315 319 323 324 318 319 317
296 297 299 301 301 301 304 307 309 311 314 315 314 313 313 315 315 314 315 312 309 313 314 312 314 321 315 319 319 316 313 315 321 323 321 325 318 315 312 315 319 315 315 315
296 297 299 301 301 302 304 307 309 309 312 312 312 314 314 314 314 314 313 313 313 313 317 313 312 320 316 320 320 321 319 318 319 321 326 321 317 314 312 320 318 314 313 313
296 297 299 301 301 301 304 309 310 311 312 312 311 310 312 312 313 314 311 315 315 316 317 316 318 318 317 317 317 321 323 318 318 320 324 321 315 314 318 313 312 311 310 310
295 297 300 300 301 301 303 309 311 311 312 312 311 311 310 310 311 312 312 313 313 315 316 316 318 320 315 315 319 316 322 318 318 319 318 314 312 314 313 312 312 311 308 308
295 297 300 300 300 301 303 308 310 310 311 311 311 312 311 310 310 310 315 313 312 315 311 317 317 319 314 320 317 317 315 314 317 319 317 316 312 311 312 312 310 307 306 306
296 298 299 299 300 301 303 309 311 310 311 314 313 310 309 310 309 308 310 312 312 312 313 317 318 319 311 316 314 317 316 315 316 316 313 312 311 310 310 307 306 305 304 304
297 298 298 299 299 301 304 310 310 310 313 316 314 310 310 310 309 308 311 311 313 315 318 317 318 317 314 313 312 314 311 317 319 321 314 313 311 308 307 307 306 304 303 301
297 298 299 299 299 301 305 311 310 310 311 312 313 310 310 309 308 308 309 311 311 313 317 317 315 312 315 317 319 317 311 310 314 316 310 308 307 306 306 306 304 303 302 301
298 298 298 299 300 302 308 311 310 310 311 312 310 312 310 309 309 309 310 309 312 313 315 316 315 313 314 316 318 316 311 310 309 307 308 309 308 307 304 304 303 302 300 300
298 298 298 299 301 304 307 309 309 310 310 309 307 311 312 309 312 312 307 312 312 311 313 311 314 311 312 315 314 310 308 306 307 306 306 307 304 303 301 301 301 301 299 298
298 299 300 302 303 308 307 309 310 310 309 310 308 312 313 309 309 309 308 308 314 309 314 314 312 314 314 314 314 309 307 309 305 302 303 304 303 301 300 300 300 299 297 296
301 302 304 307 307 309 309 308 309 306 306 306 311 310 313 309 310 309 310 307 311 312 313 308 313 313 312 311 309 308 305 303 302 304 302 301 301 300 299 299 298 298 297 295
304 305 304 305 307 307 306 308 309 308 308 308 310 310 311 307 310 308 304 307 307 313 308 314 311 313 309 303 305 303 303 302 303 303 302 302 301 300 298 297 295 294 294 295
304 304 305 304 303 304 308 309 305 308 309 307 310 310 308 306 304 308 304 308 307 312 305 310 312 308 301 302 303 301 300 300 300 300 300 300 299 298 297 296 295 293 292 291
304 302 306 306 302 308 311 310 307 307 304 303 305 306 304 303 301 299 301 303 308 301 307 309 306 300 300 300 299 298 298 298 298 298 297 297 296 296 295 293 293 292 290 290
299 300 307 307 306 308 305 304 301 299 301 303 304 303 304 301 303 300 300 302 301 301 301 304 299 298 299 297 297 298 298 298 298 296 296 295 295 294 293 293 292 290 288 288
299 299 308 306 299 298 298 296 301 300 303 302 302 300 298 295 297 297 302 303 304 302 303 300 295 296 297 295 295 295 296 296 296 296 294 293 292 291 290 290 291 290 288 288
296 297 300 299 300 299 299 300 301 298 301 295 296 297 294 296 296 298 296 299 299 301 297 289 287 295 296 294 294 294 295 295 294 294 293 292 292 290 288 289 289 289 288 286
297 296 296 296 297 298 299 299 301 300 299 300 296 298 299 293 294 296 292 296 296 291 288 286 291 292 292 291 292 292 292 292 292 291 289 288 288 287 286 283 283 285 285 285

GFSNW_925_thetae_039.txt.gz
Theta_e
298 299 300 302 302 303 303 307 307 309 309 309 309 312 311 308 312 311 310 310 312 312 313 316 316 314 312 309 310 312 309 310 310 310 311 312 314 316 317 318 321 321 321 319
299 298 299 301 303 302 305 308 311 310 307 308 309 311 310 310 311 311 311 310 311 311 314 317 314 314 311 311 310 310 310 314 314 314 317 313 315 315 316 317 318 321 325 321
298 298 299 301 303 302 304 305 307 310 309 310 309 312 311 311 310 311 312 312 312 313 315 313 314 316 312 310 309 312 311 315 315 315 317 316 318 318 318 316 321 321 323 322
298 299 298 301 303 302 304 309 309 307 309 312 310 310 312 312 314 311 311 313 313 314 314 314 316 314 313 311 311 312 314 318 317 317 318 318 316 315 316 317 319 324 325 321
297 298 299 300 303 301 305 312 312 310 310 311 311 311 313 314 312 314 314 313 313 313 314 315 316 313 312 312 313 315 314 317 318 319 318 316 319 320 316 315 317 318 319 321
298 297 298 300 302 301 303 305 308 311 311 312 314 314 314 313 313 314 313 313 314 314 312 311 311 310 311 311 314 316 317 318 321 321 319 322 327 321 326 323 325 326 324 322
298 297 298 300 302 301 303 304 306 313 314 312 313 313 312 313 314 315 315 314 315 311 309 309 310 310 311 312 312 313 318 318 318 321 322 327 319 316 323 325 324 321 322 317
298 297 297 300 301 302 302 304 308 311 315 312 312 312 314 313 313 315 315 314 313 311 312 313 313 316 314 315 312 313 315 317 320 324 324 320 316 315 319 323 323 318 320 315
298 296 297 299 301 301 302 304 307 309 311 313 313 314 313 315 315 314 314 312 311 313 315 313 314 318 315 318 318 314 313 316 320 318 324 323 317 315 311 314 319 314 315 315
298 296 297 299 301 301 302 303 306 309 312 311 312 313 314 314 314 313 312 313 313 313 316 312 311 318 313 318 318 321 317 317 319 321 322 318 315 314 311 320 318 313 312 313
298 296 297 299 301 300 302 303 306 310 311 311 311 310 312 313 313 315 311 314 315 315 319 312 313 315 315 315 315 318 317 315 316 318 320 318 313 313 317 312 311 312 311 310
297 296 297 300 300 300 302 306 309 310 310 312 311 310 310 311 311 312 311 314 313 312 315 311 313 316 313 313 318 314 318 315 316 315 315 311 311 312 312 311 311 310 309 307
296 296 297 299 299 300 301 303 307 310 311 311 310 311 311 311 310 311 313 313 312 314 309 312 314 320 311 315 314 315 315 312 316 318 315 315 313 311 311 309 309 306 305 304
296 297 298 299 299 300 301 303 308 310 310 312 312 310 309 309 309 310 310 310 311 312 312 315 318 318 310 314 313 314 313 313 315 315 313 311 310 310 309 306 305 304 303 303
297 298 298 299 299 298 300 303 308 310 312 316 314 310 309 309 309 309 309 310 313 315 318 318 320 317 314 311 310 312 311 315 317 318 314 313 312 308 307 307 306 304 303 301
298 298 298 299 299 298 301 311 309 310 311 312 313 310 310 308 308 308 309 310 312 313 317 317 316 311 314 314 316 316 311 309 313 316 309 308 307 305 306 305 304 302 301 300
297 298 299 299 298 299 303 309 308 310 310 312 311 311 309 309 307 308 310 309 311 313 315 316 315 312 312 314 315 315 310 309 309 307 307 308 307 307 304 304 302 300 298 297
298 299 299 299 299 301 304 308 308 310 310 309 308 311 311 309 312 313 308 313 312 312 314 312 314 312 312 316 313 312 308 307 306 305 305 307 303 302 301 301 300 299 298 296
299 299 299 300 302 305 308 309 310 310 309 310 308 311 312 309 310 309 309 309 314 309 314 314 312 313 314 314 312 309 306 309 306 302 302 303 303 301 301 300 299 298 296 295
301 301 303 305 307 309 309 309 310 306 306 305 311 310 313 309 310 309 309 307 310 312 311 307 312 315 311 310 308 307 306 303 302 304 301 301 300 300 299 299 298 298 296 294
303 304 305 305 308 307 306 307 310 308 308 308 309 310 311 307 310 310 305 307 307 312 307 313 311 311 307 303 305 303 303 302 303 303 302 302 301 300 298 296 295 295 294 294
301 302 304 305 303 304 309 309 305 308 309 308 310 310 309 306 304 308 304 308 307 311 303 310 311 306 302 301 302 301 301 301 301 301 300 299 298 297 296 295 294 293 292 291
303 302 306 305 302 309 311 310 309 309 302 305 304 306 305 303 303 302 302 305 310 301 306 308 305 299 300 299 298 298 298 298 298 298 297 297 296 296 295 293 292 291 290 289
299 300 306 307 308 308 307 305 300 298 301 304 304 303 305 302 304 302 302 303 301 305 300 301 298 297 298 297 296 297 297 296 295 295 296 295 295 293 293 292 291 290 288 287
299 299 306 306 299 298 298 297 299 300 301 298 302 301 301 301 301 298 302 304 305 303 303 297 293 295 295 295 295 295 295 295 294 294 293 293 292 291 289 289 289 288 287 287
296 297 297 298 300 300 299 300 301 299 299 297 300 300 303 303 296 298 298 299 301 302 296 288 285 294 294 293 293 293 293 293 293 293 293 292 291 290 287 287 287 287 286 284
297 292 293 293 296 298 299 298 300 300 300 304 294 298 301 293 297 296 293 297 297 290 288 286 289 292 292 291 291 291 292 292 292 291 290 289 288 287 287 284 283 285 284 284

GFSNW_925_thetae_042.txt.gz
Theta_e
299 299 300 299 301 303 302 306 308 309 309 309 303 310 310 309 311 310 310 310 310 310 311 313 314 313 311 308 309 313 311 314 312 309 309 311 311 313 313 316 315 317 316 316
299 299 299 299 301 303 302 307 310 309 305 307 308 311 310 310 312 311 309 310 310 310 312 314 313 313 312 309 309 310 311 314 309 308 313 310 314 313 314 315 316 317 318 316
299 298 299 298 301 303 303 305 310 304 308 308 309 312 310 310 309 311 309 310 310 311 312 312 313 313 313 310 310 311 310 313 311 310 310 315 317 316 315 315 317 319 318 317
299 298 298 298 300 302 303 305 308 306 307 308 311 311 311 312 311 310 310 312 311 313 314 313 313 311 312 312 310 311 311 313 314 314 315 316 317 317 317 317 317 318 317 320
298 298 298 298 301 301 303 309 310 309 308 309 311 311 310 311 312 311 312 311 312 312 312 311 314 313 313 312 311 310 310 314 314 317 316 317 318 317 317 317 317 316 317 319
298 298 298 298 300 302 301 302 304 310 311 310 311 312 312 313 311 311 312 312 312 313 312 311 311 312 311 311 313 312 313 314 317 319 317 317 323 322 324 318 316 316 319 317
298 298 297 297 300 302 301 302 304 312 312 312 312 312 313 313 312 313 314 313 314 313 310 310 310 311 311 310 310 311 315 316 319 321 320 328 322 319 324 325 324 316 320 316
298 298 297 297 299 302 301 302 305 311 313 312 312 313 312 312 311 314 314 313 312 311 312 313 314 314 314 312 311 311 311 315 321 321 325 322 317 315 322 324 325 315 319 314
298 298 297 297 299 302 301 302 305 309 313 312 311 311 312 315 315 315 314 311 311 312 314 314 316 315 314 317 318 311 311 313 319 320 323 322 317 315 312 311 322 314 314 315
298 298 297 297 299 301 301 302 304 307 311 310 311 313 313 312 313 313 312 311 313 312 314 312 313 319 312 318 318 319 315 318 321 318 323 316 313 313 312 319 317 312 312 313
297 298 296 297 300 300 301 302 307 307 309 309 310 311 312 312 312 314 311 311 314 314 317 313 310 313 315 315 314 317 316 317 314 315 319 316 311 311 316 312 310 312 311 311
297 297 296 297 300 300 300 303 304 308 309 310 311 310 310 311 311 312 309 311 312 313 314 309 310 313 311 312 318 312 317 313 314 313 315 311 311 312 311 310 310 310 309 307
296 296 297 298 299 300 300 301 302 309 311 310 309 310 311 311 311 311 312 312 312 313 307 308 312 316 309 314 313 313 312 310 315 316 314 312 312 310 310 308 308 305 303 302
295 297 298 299 299 299 300 300 302 304 309 311 310 310 310 310 310 310 310 310 310 312 309 312 313 315 310 314 311 312 311 311 314 313 313 311 310 309 307 305 303 302 301 300
296 297 298 299 299 299 299 299 302 306 311 315 314 310 309 309 309 309 309 309 310 315 317 315 314 314 314 312 311 311 310 313 316 316 313 313 312 308 305 305 304 302 300 298
295 296 297 298 299 299 299 307 309 310 311 312 312 310 309 308 309 309 309 310 312 313 315 315 315 312 315 317 313 313 308 309 311 315 310 308 306 305 305 304 303 301 300 297
296 297 298 299 299 299 301 307 306 308 310 312 311 310 309 307 307 308 310 309 311 313 315 316 315 313 312 314 312 313 311 309 308 307 306 310 308 308 303 302 301 299 297 296
297 298 299 299 299 300 302 306 307 309 310 309 307 311 311 308 312 313 308 313 312 312 313 312 315 312 311 313 312 311 308 306 305 305 305 306 303 302 300 299 299 298 296 294
299 300 299 300 300 303 307 309 309 310 309 309 308 311 311 308 310 309 309 309 314 309 314 314 312 314 314 313 311 311 307 308 306 302 302 303 302 301 300 299 298 298 295 294
300 300 301 304 305 307 309 310 310 307 307 306 311 309 312 308 310 309 310 307 310 311 312 307 312 314 311 310 309 307 305 303 302 304 301 300 300 300 299 299 298 297 295 293
302 303 304 305 308 307 306 307 310 308 308 308 308 309 311 306 310 310 305 308 306 312 307 311 309 309 306 301 304 303 302 301 303 304 303 302 302 300 298 296 295 294 293 292
299 300 301 305 303 304 309 309 305 309 310 308 310 310 308 306 305 306 304 308 307 310 301 310 311 305 301 300 300 300 300 301 302 301 300 299 298 297 296 295 294 292 291 290
302 301 304 305 303 309 310 310 309 308 300 304 304 306 305 304 303 303 304 308 310 300 307 308 304 299 299 298 298 298 297 298 298 297 297 296 295 296 295 293 292 291 289 288
298 300 306 306 307 308 306 302 299 296 300 303 304 303 305 303 305 303 307 302 302 306 303 301 298 296 297 296 296 297 297 295 295 295 295 295 294 292 292 292 291 290 288 287
299 299 306 305 300 298 298 297 298 299 301 301 302 301 303 302 303 299 302 304 305 304 302 296 293 294 295 295 295 295 294 293 293 293 293 292 291 290 290 290 289 288 287 286
297 297 297 297 298 299 299 299 300 298 300 298 300 302 304 303 302 298 300 298 301 302 295 289 282 294 294 293 293 292 292 292 292 292 292 291 290 289 287 287 287 286 286 284
294 291 293 292 293 295 296 298 299 300 300 305 301 305 307 294 297 296 293 299 299 290 287 285 287 290 291 290 291 291 291 291 291 290 289 288 287 287 287 284 282 283 284 284

GFSNW_925_thetae_045.txt.gz
Theta_e
299 299 299 299 299 300 303 301 307 306 307 309 306 309 309 310 311 308 309 309 309 309 310 310 312 312 310 308 309 313 311 314 314 312 309 309 310 311 312 314 312 316 315 314
299 299 299 299 299 301 303 302 306 309 306 307 308 310 309 311 311 310 308 310 310 309 311 312 313 313 310 309 309 309 311 315 311 306 312 310 312 312 312 312 314 315 316 314
299 299 299 299 299 301 303 301 306 304 307 307 309 311 311 311 309 310 309 309 309 310 312 311 312 313 312 310 309 310 310 311 307 309 308 313 314 313 313 314 316 316 315 314
299 299 299 299 298 300 302 305 307 305 307 309 310 311 310 311 311 309 309 311 310 311 312 313 313 312 311 311 310 311 311 314 311 312 313 313 314 316 316 315 315 316 315 314
298 299 299 298 298 300 299 303 307 307 307 309 310 311 312 311 311 310 311 310 311 310 311 310 312 311 312 312 309 311 310 314 313 314 313 314 316 317 317 317 318 316 316 317
298 299 298 298 298 300 300 300 301 306 309 310 312 312 310 310 310 309 309 309 310 311 311 309 309 312 311 311 312 309 312 313 314 316 317 318 321 321 321 320 317 316 320 316
298 298 298 298 298 300 302 301 302 306 312 310 311 310 312 312 310 313 313 310 311 312 310 310 310 312 312 311 311 311 315 313 316 320 319 326 323 320 320 325 324 315 315 315
297 298 298 298 298 300 302 301 303 308 312 312 311 310 312 312 312 313 312 313 312 311 310 312 313 312 313 312 312 311 311 313 319 322 322 319 319 319 322 325 324 315 317 314
297 298 298 297 298 300 301 300 303 306 311 312 311 311 312 313 312 313 312 311 311 312 311 312 313 311 311 313 313 309 309 311 318 319 322 322 319 314 312 317 326 318 313 314
297 298 298 296 298 300 301 300 303 304 309 309 309 311 312 312 313 314 312 311 311 311 312 315 314 315 309 315 316 316 314 316 317 321 322 316 313 312 311 319 318 312 312 312
297 298 296 297 298 300 300 300 304 304 310 309 310 310 311 312 313 314 311 311 310 312 312 314 312 311 311 314 313 314 315 317 319 318 320 317 310 312 315 312 310 311 311 310
296 295 297 298 299 300 300 300 299 302 308 308 310 310 310 310 310 311 309 311 311 311 313 309 310 312 311 313 316 311 316 312 312 312 313 309 309 312 310 309 309 309 308 308
294 295 297 298 299 300 300 300 299 304 310 307 308 309 311 310 311 310 312 310 311 312 307 309 311 315 310 313 312 313 312 308 313 314 314 311 310 310 308 307 308 305 303 302
296 296 297 297 298 299 300 300 299 300 306 309 309 310 310 310 311 311 311 310 310 310 310 312 312 314 308 311 310 311 310 310 313 312 312 311 311 308 308 305 302 301 299 299
295 295 296 296 298 299 299 299 300 301 306 314 313 310 309 309 310 310 310 309 310 312 316 315 313 310 310 309 310 309 308 312 314 315 312 312 311 307 305 305 303 300 298 296
296 296 296 297 298 299 298 304 307 305 305 312 312 309 309 308 309 309 310 310 311 313 315 316 314 311 313 317 317 311 308 308 310 314 310 307 306 305 305 303 302 300 297 296
296 297 298 298 298 300 299 305 304 305 307 311 311 311 309 308 308 308 309 309 311 312 315 316 312 312 312 314 313 313 310 308 308 308 307 309 306 308 303 301 299 297 295 294
297 298 299 299 299 299 300 303 306 304 309 309 307 310 309 308 312 313 308 312 312 312 313 313 314 311 311 315 312 310 309 307 306 305 305 305 302 301 299 298 297 296 295 293
300 300 299 299 300 301 304 308 309 310 309 309 308 311 312 307 310 310 309 309 314 309 314 315 312 315 315 313 311 310 307 307 307 303 302 302 303 301 299 299 297 296 295 293
299 299 301 303 303 305 308 310 310 306 307 306 310 308 311 307 309 309 310 307 310 311 312 307 312 315 310 308 307 306 305 304 302 304 301 301 301 300 299 299 298 296 295 292
301 303 303 304 307 307 306 307 309 308 308 308 308 307 311 304 310 310 305 307 306 312 309 311 311 309 305 301 303 302 301 301 302 303 304 302 302 300 298 296 294 293 292 291
299 299 300 303 304 304 307 308 305 307 310 307 310 309 308 305 304 303 304 308 306 310 301 309 310 306 301 300 300 300 300 300 301 300 300 299 298 297 296 295 293 291 289 288
301 300 301 305 303 309 310 310 309 308 304 303 304 306 306 305 304 304 305 309 309 302 307 308 304 300 299 298 298 298 297 298 297 297 296 296 295 295 294 292 291 290 289 288
299 300 307 306 308 307 306 302 298 296 299 302 304 303 305 303 306 303 309 304 302 306 306 301 299 296 297 296 295 297 297 296 296 295 295 294 294 292 292 291 290 289 288 286
299 299 304 305 299 299 298 297 299 298 300 301 302 301 303 303 305 300 302 303 306 304 303 297 293 293 295 295 295 295 294 293 293 293 293 292 292 291 290 290 289 288 287 286
296 293 296 295 298 300 299 299 300 298 300 298 300 302 304 304 298 299 302 299 302 302 296 290 283 292 293 293 293 293 292 291 291 291 291 290 290 289 287 287 287 286 285 284
295 294 294 292 295 297 297 297 299 299 300 304 302 304 303 295 298 296 294 300 302 291 287 284 287 288 292 291 291 290 290 290 289 289 288 287 286 286 286 284 283 284 283 283

GFSNW_925_thetae_051.txt.gz
Theta_e
300 300 300 300 300 300 301 301 305 305 304 306 307 308 311 309 313 311 312 312 312 313 313 313 314 315 314 312 313 313 312 313 317 314 313 313 313 313 313 316 316 315 316 315
300 300 300 299 300 300 302 303 301 302 305 309 308 309 310 311 312 312 312 313 313 312 314 315 314 314 312 312 313 313 312 315 317 316 314 312 313 313 313 313 315 317 319 316
300 299 299 299 299 300 301 301 306 304 306 306 308 310 311 313 312 311 312 313 312 313 314 314 315 314 312 312 312 312 313 313 316 320 317 316 315 313 313 315 318 316 317 315
300 299 299 299 299 300 301 301 304 307 309 309 309 309 312 314 314 312 312 313 314 314 315 315 315 313 314 312 312 312 313 315 314 314 314 313 315 315 314 316 315 317 316 315
299 299 298 299 299 300 300 303 303 303 309 309 310 311 312 315 313 312 313 314 313 313 315 314 315 314 313 313 313 313 312 315 314 315 313 313 316 314 314 316 316 316 317 317
299 299 299 299 298 300 302 301 301 303 310 310 312 312 312 314 313 313 312 313 314 313 313 312 312 313 312 312 313 314 315 315 314 316 314 316 321 319 319 319 318 318 320 319
298 298 298 299 298 299 301 301 301 304 311 310 311 311 311 312 313 314 313 312 313 314 312 312 312 312 312 313 312 312 315 314 313 315 315 325 324 318 319 321 320 320 320 321
298 298 298 298 298 299 301 300 301 303 308 311 310 311 312 312 312 313 313 312 313 313 312 314 314 313 312 313 313 312 312 316 317 318 319 318 320 320 321 321 324 323 323 319
296 297 297 297 298 300 300 299 300 303 306 311 310 311 311 312 313 313 313 313 313 313 313 314 316 316 314 313 312 312 313 312 318 317 320 321 318 318 318 319 327 321 321 319
295 295 295 296 298 300 300 300 299 301 305 310 311 312 313 312 313 314 314 314 314 313 314 315 315 315 313 316 314 315 316 316 316 315 318 316 316 316 315 324 321 320 319 317
295 296 296 296 297 299 300 299 299 299 304 309 311 312 312 313 313 315 313 313 312 314 314 316 316 316 315 314 314 314 314 314 315 314 316 319 315 315 319 318 317 316 315 314
295 295 297 297 297 298 299 300 299 299 301 308 310 311 312 312 313 314 311 313 312 313 313 313 315 316 316 314 318 313 314 312 315 315 316 315 315 315 315 315 316 315 313 313
295 295 295 296 296 296 298 299 300 300 305 313 313 312 312 311 312 311 313 311 310 310 311 314 315 317 316 317 315 317 315 313 314 317 316 316 316 316 315 314 313 311 309 308
295 296 296 296 296 296 297 299 300 300 302 311 313 311 312 310 310 311 311 311 309 310 310 313 316 318 315 318 316 317 316 316 316 315 315 316 316 315 313 312 309 306 305 306
296 296 296 297 297 297 298 299 300 300 302 310 313 311 311 309 310 310 311 310 311 311 311 314 316 317 317 317 316 317 315 316 318 317 317 318 317 313 311 311 308 305 304 304
295 296 297 297 297 298 299 303 302 300 300 308 313 310 311 309 310 309 309 309 311 311 312 316 315 316 317 319 318 315 315 314 314 315 315 314 313 311 309 308 305 303 302 302
297 298 298 298 297 299 300 304 301 301 302 309 312 313 310 309 309 309 309 309 311 312 314 314 316 318 317 318 317 314 316 315 315 315 314 315 312 313 308 304 301 300 299 299
299 300 300 298 297 298 299 300 301 300 303 309 309 313 312 308 312 312 309 312 311 312 314 314 317 315 316 319 316 315 315 315 314 314 313 311 309 306 303 300 299 298 298 297
299 297 297 298 300 301 302 304 307 302 307 311 311 314 316 310 312 311 310 309 314 311 314 315 314 316 318 317 316 316 314 313 313 309 309 308 309 305 302 301 300 298 297 297
299 299 300 303 302 302 304 306 308 308 309 308 311 311 313 311 313 312 311 309 312 312 313 309 313 316 315 315 312 311 312 310 309 309 308 307 306 304 302 301 300 300 297 296
301 302 303 302 305 306 306 308 311 310 311 311 310 309 313 308 313 314 308 310 308 314 312 312 316 315 313 307 307 307 308 307 307 308 307 307 307 305 301 301 299 297 296 295
298 298 299 301 305 306 309 310 308 309 313 310 311 310 309 309 308 310 308 310 310 315 307 311 313 313 306 304 304 304 304 305 306 304 305 306 306 305 302 299 297 296 293 291
300 301 302 306 306 309 310 312 311 312 307 304 305 310 308 308 307 306 309 311 312 306 310 312 313 308 302 302 302 303 302 303 303 302 303 304 304 303 300 298 296 293 292 291
301 302 308 308 309 309 307 307 306 302 303 304 305 306 306 306 308 306 311 307 305 310 311 313 309 302 300 301 301 301 302 301 302 301 301 301 300 299 298 296 294 293 292 290
301 300 308 305 304 303 302 302 302 302 301 303 305 304 304 308 308 304 306 309 311 311 314 310 302 298 299 300 300 301 301 300 300 299 299 299 298 297 295 294 293 291 290 290
298 299 302 301 303 303 302 301 303 300 302 300 301 306 308 311 309 308 309 312 314 311 305 301 297 297 298 298 298 298 297 298 298 298 297 296 296 295 294 292 291 290 289 287
298 300 297 299 300 303 301 300 300 298 301 306 304 308 311 302 307 307 306 309 304 299 297 296 295 295 295 295 296 296 296 296 296 295 295 294 293 292 291 290 288 288 287 286

GFSNW_925_thetae_054.txt.gz
Theta_e
300 301 300 300 300 300 301 301 304 302 304 305 306 309 310 310 309 312 312 312 313 312 314 314 313 313 314 311 312 313 312 313 315 314 312 311 313 313 313 314 310 312 309 312
300 300 300 299 300 300 302 302 302 303 305 307 308 309 310 310 312 313 313 313 313 312 313 314 314 314 312 312 312 313 311 314 315 314 314 313 314 314 314 313 314 310 313 312
300 300 299 299 300 300 301 302 305 304 304 304 308 308 310 312 312 312 313 312 313 314 315 314 315 314 313 312 313 313 312 313 314 319 317 315 312 313 314 314 313 313 313 312
300 299 299 299 299 300 301 302 304 305 306 306 306 310 311 314 315 313 313 314 313 314 315 314 314 313 313 313 313 312 312 314 314 314 313 313 315 315 313 313 313 314 312 312
299 299 299 299 299 300 301 303 303 302 306 309 310 310 311 313 313 314 314 315 314 314 315 314 314 313 312 313 312 312 312 313 313 314 313 313 314 313 313 313 313 314 313 313
299 299 298 299 298 300 302 302 301 303 308 309 311 311 312 313 313 313 313 313 314 314 313 313 313 312 311 312 312 314 314 314 315 314 314 315 315 315 314 314 313 314 316 315
298 298 299 298 298 300 301 301 301 304 310 310 310 311 311 313 314 314 313 313 315 313 311 311 311 311 312 312 312 312 313 314 314 312 313 317 322 318 319 320 320 318 317 318
296 296 296 297 298 300 300 301 301 303 307 308 310 310 311 311 312 314 313 314 313 311 312 314 314 313 312 312 312 312 312 314 316 314 315 316 317 320 320 321 322 320 320 320
296 296 295 296 297 299 300 300 299 302 305 310 308 311 311 312 312 314 314 313 311 312 313 314 314 315 313 314 313 312 312 313 316 315 317 320 319 319 317 318 324 322 321 321
296 296 296 297 297 299 299 301 299 300 304 305 311 312 313 312 313 314 314 313 314 313 314 316 315 315 313 314 313 314 315 315 314 312 316 314 313 316 315 324 320 319 320 318
296 296 296 296 297 298 298 300 300 299 302 303 310 312 313 313 313 315 312 312 312 313 315 315 314 316 314 313 313 312 313 314 315 313 315 312 313 314 318 316 315 315 315 314
296 296 296 296 297 297 297 300 299 299 300 303 307 310 311 312 312 313 312 313 312 313 313 312 313 317 314 314 316 310 312 310 310 311 311 310 314 314 313 313 314 314 313 312
295 295 296 296 297 297 296 297 298 300 303 308 311 313 312 311 312 312 313 311 310 310 310 312 313 316 314 316 313 313 311 308 310 314 313 312 312 312 314 313 312 309 308 308
296 295 296 297 297 298 297 297 299 299 300 309 313 311 312 311 310 311 311 311 310 310 310 312 314 315 314 315 315 315 314 312 312 312 312 312 313 312 311 309 307 305 304 306
296 295 296 297 297 297 297 297 298 299 301 309 310 309 311 310 310 311 311 310 310 311 312 313 313 314 316 314 314 314 312 314 315 316 315 315 314 311 311 308 305 304 304 304
295 296 297 297 297 298 298 302 302 302 300 305 311 310 311 309 310 310 309 309 310 310 310 312 313 314 315 315 315 314 311 312 312 314 313 312 311 309 307 305 303 302 302 302
295 296 298 298 297 298 299 303 301 301 301 306 310 312 310 309 309 309 309 309 309 311 312 314 314 315 315 315 315 313 315 314 314 313 314 314 311 310 304 301 300 300 299 299
298 299 299 299 297 298 299 299 300 299 301 306 308 311 312 308 311 311 308 311 310 310 312 313 315 314 315 314 314 313 314 313 313 311 312 309 306 302 300 298 298 298 296 296
299 298 298 297 298 301 301 302 303 301 304 310 309 311 313 309 312 310 310 309 313 310 313 314 313 315 315 314 314 313 311 311 311 308 307 308 306 302 299 298 298 297 297 296
299 300 300 302 301 302 302 303 305 303 307 308 311 310 312 310 312 311 310 309 310 309 312 308 312 315 313 309 307 308 309 309 308 309 309 307 303 302 300 299 298 297 296 295
300 302 303 302 304 305 306 307 310 309 310 310 310 309 311 308 312 312 308 308 307 312 310 311 313 314 309 303 304 303 304 305 306 307 306 306 305 303 301 300 299 297 295 293
298 298 299 300 303 305 308 308 307 308 310 309 310 309 308 308 306 309 307 308 307 313 306 311 313 310 302 301 301 301 301 302 304 303 304 305 306 302 300 298 297 295 293 291
300 301 300 304 304 308 309 311 310 310 306 303 304 308 307 308 306 305 306 309 311 305 309 311 309 301 299 300 300 300 300 301 302 302 302 304 303 301 299 296 294 292 291 290
301 302 307 306 308 308 307 307 306 302 302 303 304 305 306 305 307 305 310 306 305 310 310 308 301 297 297 298 298 300 300 300 300 300 300 301 299 298 297 294 292 291 291 290
300 300 306 306 303 302 301 299 302 301 301 303 304 303 303 305 307 304 306 309 311 309 309 303 297 295 296 296 297 297 297 298 298 298 299 298 296 295 294 293 292 291 289 288
297 298 301 300 302 301 301 300 301 300 302 299 301 305 305 308 308 308 310 309 307 304 298 295 294 294 294 294 294 295 295 295 295 296 296 296 295 293 292 291 290 289 288 287
298 300 297 299 300 301 300 300 300 298 300 305 303 307 306 300 306 308 303 302 298 293 292 291 293 293 293 292 293 294 293 294 293 294 294 294 293 292 290 288 288 288 287 287

GFSNW_925_thetae_060.txt.gz
Theta_e
299 300 299 299 300 301 301 302 303 302 303 302 301 304 307 308 307 305 307 313 311 312 311 312 311 312 311 308 309 311 311 311 316 314 311 310 310 311 310 304 304 302 305 311
300 300 300 299 299 302 301 301 302 302 302 299 301 307 305 308 307 307 314 314 310 311 312 313 312 310 309 308 309 310 310 310 309 314 312 311 313 311 311 308 309 304 306 309
299 299 299 299 299 301 301 301 301 297 298 302 306 309 311 310 307 309 312 311 310 312 314 313 313 313 313 310 310 313 310 311 309 310 310 310 311 312 311 310 310 306 307 308
298 297 298 298 299 300 301 299 302 302 304 302 303 306 309 310 313 314 312 312 313 315 315 313 313 312 312 312 313 310 308 311 311 311 311 312 312 311 312 311 311 311 310 309
297 297 296 297 298 299 301 303 303 302 304 305 306 307 309 311 315 315 314 314 315 313 314 313 314 312 312 312 311 311 309 310 311 311 310 311 311 311 311 312 312 312 311 312
296 297 296 296 298 298 299 301 300 302 305 307 308 310 310 313 314 313 314 314 313 313 311 310 309 309 309 309 310 311 311 310 311 306 309 309 309 310 311 311 310 312 313 311
297 296 297 296 297 298 299 300 300 303 307 307 309 309 310 312 314 314 313 312 312 311 309 309 308 308 308 309 310 309 310 311 313 307 309 312 308 312 310 311 310 311 311 311
297 296 296 297 297 298 298 299 300 302 305 305 308 308 310 310 311 313 312 310 309 308 308 309 312 311 312 311 311 310 310 312 313 311 311 310 313 317 318 318 317 318 319 317
297 296 296 296 297 298 298 299 299 301 304 305 304 307 309 308 311 310 313 311 308 308 309 310 312 313 311 312 312 311 311 312 313 313 315 314 313 315 315 315 322 317 319 319
297 297 296 296 296 297 297 297 298 300 302 303 305 308 309 308 309 308 311 312 310 308 309 309 312 313 311 310 310 312 315 315 314 314 314 309 307 308 313 323 317 315 318 319
297 298 296 295 296 297 297 296 298 299 301 301 301 305 311 309 308 312 309 308 308 309 311 311 309 311 310 308 307 309 311 312 314 313 312 309 306 314 317 315 312 312 313 316
297 297 297 296 296 297 297 297 299 297 300 301 301 302 303 305 311 311 308 309 308 307 310 307 308 312 309 309 313 307 312 308 308 307 307 305 305 310 309 309 309 309 311 311
297 297 297 296 296 296 298 297 297 296 300 302 303 306 310 310 308 311 312 309 309 309 306 310 311 312 307 311 309 308 307 306 307 308 307 306 306 305 307 309 309 307 306 307
297 297 297 297 296 296 298 298 297 297 299 304 309 310 310 310 310 311 310 308 308 308 309 310 312 314 308 312 311 312 309 306 307 306 306 306 309 309 310 308 305 304 303 304
296 297 296 296 296 297 298 297 297 297 298 305 307 305 307 310 310 310 310 308 309 310 311 312 312 312 311 307 308 309 308 308 308 309 307 309 311 311 309 307 306 303 304 305
296 296 297 298 296 297 297 298 300 296 296 301 308 307 308 309 309 310 310 309 309 310 311 312 312 310 311 314 316 311 308 307 307 309 309 309 311 308 305 304 303 302 302 303
296 296 298 297 298 297 296 301 300 300 298 302 307 309 309 309 309 309 309 308 309 310 310 311 311 312 312 314 311 311 308 307 310 308 309 311 309 310 302 301 300 299 298 298
296 298 299 299 298 297 297 295 296 300 301 303 306 309 305 307 311 310 307 308 308 309 310 311 312 311 311 315 311 310 308 307 308 306 305 305 302 299 298 297 296 297 296 295
295 298 298 298 297 297 299 300 301 298 301 306 307 309 305 307 310 310 308 308 310 308 310 311 312 313 313 305 303 304 304 304 305 306 306 304 305 301 297 296 296 295 294 293
299 298 299 300 298 299 302 301 301 300 302 303 308 309 311 308 309 311 310 308 307 310 310 308 312 313 302 299 300 299 299 299 300 303 307 306 303 301 298 296 295 295 294 292
300 300 301 299 302 302 304 305 306 305 307 308 309 308 310 306 309 311 308 306 304 310 308 309 309 310 300 297 296 296 297 297 298 299 300 302 303 304 299 296 295 294 293 293
294 295 297 298 301 304 306 306 306 308 309 309 309 308 308 307 305 309 306 306 305 311 305 309 312 302 297 296 296 297 298 298 299 299 299 301 303 304 301 298 296 295 293 292
297 298 299 302 302 305 308 308 308 308 305 302 303 306 305 306 304 305 306 308 310 305 309 309 303 298 296 295 295 295 296 296 297 297 298 301 302 300 298 296 294 292 291 291
299 300 303 304 306 305 300 298 300 300 301 302 303 304 305 305 306 306 309 306 304 309 309 307 299 295 294 294 294 294 295 295 295 295 296 298 299 298 297 295 293 292 291 290
299 298 303 305 301 299 299 298 300 299 299 301 302 302 302 304 306 305 305 308 308 308 308 299 295 293 292 292 292 292 293 293 294 293 294 295 295 294 294 293 292 291 289 288
296 297 299 299 301 301 299 299 299 298 300 298 299 303 306 307 306 307 308 308 308 304 297 292 289 291 291 290 290 291 291 291 291 291 292 294 294 293 291 291 291 290 289 287
296 295 296 297 298 300 299 298 299 296 300 303 303 306 306 300 304 306 303 306 300 290 288 287 288 289 289 288 289 289 289 290 290 289 289 289 290 290 289 288 288 288 288 287

GFSNW_925_thetae_066.txt.gz
Theta_e
299 298 298 298 299 301 301 297 294 300 301 296 301 304 308 306 309 308 310 310 310 310 310 310 310 310 311 308 309 310 309 310 314 314 310 309 309 309 307 305 305 302 300 306
299 298 298 298 299 301 301 299 297 300 300 298 303 305 308 308 310 311 311 309 310 309 310 311 309 308 308 308 309 310 308 307 314 313 310 310 312 310 307 305 303 301 306 306
299 298 297 297 299 300 300 300 300 298 296 300 304 307 308 311 310 310 310 309 309 310 311 309 310 312 310 308 309 312 309 307 307 308 308 309 310 311 308 307 305 305 304 306
299 298 297 298 298 299 300 300 300 302 303 305 307 307 306 311 315 311 310 312 312 312 312 312 312 311 310 310 312 308 307 309 310 309 310 311 310 311 310 307 307 308 308 306
299 298 297 298 298 298 301 302 302 302 304 305 308 311 313 314 313 311 312 312 311 311 312 312 312 310 310 310 309 309 305 310 308 309 309 310 311 310 310 310 309 308 308 309
299 298 297 296 297 297 298 299 301 302 304 306 307 310 313 313 312 313 312 311 310 310 309 308 307 306 306 308 308 308 308 308 308 305 307 308 308 308 309 308 308 309 310 309
299 298 297 296 297 297 297 297 300 303 305 304 305 306 310 312 313 314 311 310 310 309 307 307 307 308 308 307 308 307 308 309 308 308 306 308 306 306 308 308 308 308 310 310
299 298 298 297 296 297 297 296 300 302 304 302 304 306 309 310 310 312 311 310 309 306 307 309 312 311 311 311 311 309 309 309 310 307 308 307 311 314 312 313 316 310 309 310
299 298 298 298 296 296 297 296 297 300 302 302 303 306 305 307 308 309 311 309 306 305 306 307 310 310 310 313 313 310 310 307 305 305 310 311 308 311 313 314 319 315 313 317
299 299 298 297 298 296 297 297 297 298 302 301 302 307 309 307 306 307 307 308 308 305 305 306 306 309 307 310 309 314 311 312 310 310 308 308 305 307 308 318 317 312 311 309
298 298 298 298 298 297 296 297 296 298 300 300 300 301 305 308 307 308 306 305 305 306 306 305 306 308 307 307 306 308 310 310 310 310 311 306 304 309 314 313 310 309 308 308
297 298 298 298 298 298 297 296 296 297 296 300 299 299 300 302 305 309 307 306 306 305 306 304 305 309 306 305 309 305 309 306 306 305 306 303 303 309 308 306 306 307 308 307
297 297 297 297 298 298 297 296 296 296 294 297 300 301 303 303 301 302 309 308 307 307 302 303 305 309 304 309 310 307 305 303 306 307 307 305 304 303 302 303 304 308 305 304
296 297 297 297 298 297 297 297 296 296 295 301 301 305 306 309 307 304 305 306 306 306 307 307 310 311 305 308 307 307 306 305 307 305 305 306 306 306 304 308 307 305 303 303
297 297 296 296 297 297 297 297 296 296 296 301 302 300 304 306 309 309 309 307 307 308 311 311 311 308 309 304 305 305 304 306 307 308 306 306 306 306 308 309 308 304 303 304
295 296 296 296 297 296 296 298 296 297 297 298 303 305 306 308 308 308 309 308 308 310 311 312 310 307 309 310 312 306 307 306 305 306 304 304 304 304 305 305 304 302 302 302
295 295 296 296 297 297 296 294 297 297 296 298 303 307 306 308 309 308 309 308 309 310 311 311 311 311 311 312 311 306 303 302 303 303 304 308 305 305 299 300 299 299 298 298
295 296 295 299 299 298 297 296 296 297 295 299 303 308 305 308 310 311 307 308 308 309 310 309 311 310 311 311 306 301 300 300 301 301 300 301 301 299 299 298 297 299 298 296
296 295 297 297 297 297 297 296 296 297 297 302 305 309 308 306 310 309 308 307 310 307 310 309 310 311 311 305 302 301 298 299 300 299 299 301 303 304 301 298 297 297 296 295
297 298 297 297 296 296 295 299 298 299 299 301 305 307 310 308 309 307 311 308 309 308 309 308 309 310 302 299 297 297 297 297 298 299 300 299 299 301 301 301 298 295 296 294
296 298 297 297 298 297 300 300 301 302 304 304 304 304 308 306 309 310 308 306 304 309 309 309 310 309 302 296 295 294 294 297 297 297 297 298 298 297 299 301 300 295 294 293
291 292 293 294 299 300 301 303 304 304 306 307 309 308 306 306 306 308 306 306 304 307 305 307 311 301 296 294 293 292 292 295 296 296 296 296 297 297 298 301 300 296 295 293
295 295 296 299 300 303 307 307 307 307 305 303 303 306 305 305 305 305 305 307 309 304 308 308 303 298 295 294 293 292 291 294 294 295 294 295 296 299 298 296 295 294 293 292
298 299 301 302 304 305 305 302 301 300 301 302 304 304 304 305 306 306 308 306 304 305 304 304 300 295 293 292 292 292 293 293 293 293 293 293 294 296 296 295 294 293 292 292
298 298 301 302 301 299 299 298 300 299 300 302 301 301 303 304 305 304 305 308 304 306 305 300 295 292 292 291 291 291 291 291 291 291 291 291 291 293 293 293 293 292 292 291
295 297 298 297 299 301 299 298 299 298 300 298 298 302 304 305 305 307 307 307 303 301 295 290 289 291 290 289 289 290 289 289 289 289 289 289 289 290 290 291 291 292 290 290
295 297 295 296 297 299 298 298 299 296 300 299 302 303 303 300 305 305 304 306 301 295 287 286 288 289 288 287 287 288 288 287 288 288 288 288 288 289 288 287 287 288 290 289

GFSNW_925_thetae_072.txt.gz
Theta_e
301 301 299 298 299 300 300 300 308 300 300 308 306 310 307 308 310 310 311 311 312 312 311 313 314 314 315 310 310 313 311 315 318 315 312 311 311 313 312 320 317 311 315 313
301 301 299 298 298 300 301 300 302 300 303 310 309 307 309 309 312 312 312 312 311 311 312 314 312 312 310 309 311 312 311 314 317 315 312 312 313 312 310 311 312 315 318 312
301 300 299 298 298 299 300 302 307 305 304 302 306 309 311 312 312 312 311 312 311 312 312 312 313 313 312 311 311 310 310 310 313 315 313 314 315 313 311 313 317 315 314 311
300 300 299 298 297 297 300 303 303 302 308 306 306 309 312 314 313 312 312 313 312 312 313 312 313 312 311 311 310 310 311 313 313 312 312 312 313 314 312 314 312 314 311 311
299 300 299 299 297 296 300 302 302 302 303 305 308 308 311 313 313 313 313 313 312 313 314 313 313 312 311 312 310 310 309 314 311 311 310 311 313 312 312 312 312 311 311 312
299 300 299 298 297 295 298 298 299 302 304 305 307 307 308 312 313 312 312 311 312 312 310 309 309 309 309 310 311 310 311 311 312 314 310 310 313 312 313 312 311 312 313 312
299 299 299 298 298 296 296 297 298 302 304 305 305 306 306 310 313 313 312 311 312 310 308 308 310 311 311 311 310 309 311 311 312 313 310 314 309 308 310 312 312 311 311 311
299 299 299 299 298 297 295 296 298 301 301 303 305 305 307 309 310 312 312 311 310 308 309 312 313 312 312 313 312 311 310 311 313 313 312 310 315 311 310 314 318 311 311 312
298 298 298 299 299 298 296 295 296 298 301 304 302 303 305 310 311 311 311 309 308 308 311 311 313 314 311 311 313 311 310 309 311 313 313 313 316 314 313 313 322 312 311 314
298 298 297 298 298 299 298 296 295 297 299 300 301 304 304 305 309 311 310 310 310 307 311 313 313 312 309 312 311 312 312 312 313 312 313 310 308 307 310 318 320 314 313 313
298 298 298 298 298 298 298 297 296 296 298 297 298 300 302 302 307 310 310 310 309 311 312 311 311 312 310 310 308 311 311 312 311 311 313 312 306 310 317 314 311 310 313 311
298 298 297 297 298 298 298 297 296 296 297 297 296 296 297 299 300 303 306 309 310 309 311 310 311 312 309 310 313 306 312 310 311 311 311 306 305 309 310 308 308 308 308 309
297 297 297 297 298 297 297 298 297 296 297 297 296 297 297 297 296 298 304 310 308 309 306 309 309 311 310 312 312 310 308 306 310 309 309 309 308 308 307 307 308 307 307 308
297 297 297 297 295 296 297 297 297 296 296 296 297 300 300 302 303 298 299 304 307 307 308 310 311 311 307 310 309 310 310 307 310 310 309 309 308 307 309 309 309 309 307 306
297 297 297 296 295 296 296 296 296 296 296 297 297 296 298 299 305 301 299 301 304 309 312 313 313 311 309 308 309 311 308 310 311 311 309 309 310 308 306 308 308 306 305 306
296 296 296 295 295 296 296 296 295 295 296 297 297 299 301 304 305 304 303 304 307 310 313 313 312 309 310 312 312 308 308 307 306 309 307 308 308 307 304 305 304 304 304 303
296 297 297 296 296 297 294 296 296 296 296 297 298 302 304 305 307 308 309 308 310 311 311 312 312 311 310 311 310 309 308 307 305 305 304 308 305 305 302 303 302 301 301 301
297 297 297 296 296 297 297 295 296 295 295 296 300 303 307 307 310 311 309 310 309 310 310 310 311 310 310 312 310 305 303 302 303 302 301 302 301 302 303 303 301 302 302 301
296 294 296 297 297 297 295 296 296 295 296 299 301 306 310 306 309 309 309 309 309 309 310 310 309 311 311 310 309 306 301 301 301 299 300 301 302 301 301 300 301 302 303 302
292 297 297 298 296 296 296 296 296 295 296 296 300 303 309 307 308 310 309 309 310 310 309 308 310 310 304 300 299 298 297 297 298 300 302 300 300 299 299 299 300 300 301 302
291 293 297 294 295 295 296 299 299 299 301 300 302 304 307 306 309 309 308 308 306 311 309 311 310 310 303 297 297 295 294 294 296 297 297 298 298 298 298 299 300 300 301 301
294 293 293 292 295 297 299 301 301 302 304 305 305 305 305 306 306 308 307 307 305 309 306 308 310 305 297 296 294 294 294 295 296 295 296 296 296 296 297 299 299 298 298 299
293 294 295 297 299 301 303 306 307 306 305 303 304 306 306 306 306 304 305 308 309 305 309 308 306 298 295 295 294 294 294 294 294 293 293 293 294 294 295 295 295 294 295 294
296 298 300 301 303 303 305 304 303 300 299 300 304 304 306 305 305 305 308 308 306 309 309 309 302 298 295 294 293 294 293 292 292 292 292 291 291 292 293 293 293 293 294 292
295 297 301 301 299 299 298 297 298 298 297 301 303 303 304 303 305 304 307 309 310 308 309 306 298 295 294 294 293 292 291 291 291 291 291 291 290 290 290 290 290 291 291 292
294 295 296 298 298 299 298 298 298 295 296 299 300 303 306 307 307 308 310 309 309 308 303 297 294 294 293 292 291 290 288 288 289 290 290 290 289 289 289 289 287 288 289 289
290 293 294 295 297 297 297 297 297 294 298 303 302 305 305 302 306 307 305 307 305 299 293 292 293 292 290 288 288 286 287 287 287 287 288 288 289 289 289 289 287 286 286 288

GFSNW_925_thetae_075.txt.gz
Theta_e
301 301 300 300 299 299 301 303 312 304 305 311 309 312 309 308 311 311 313 313 313 314 314 315 316 316 314 311 312 314 314 316 320 316 313 315 316 318 317 323 320 316 320 315
300 301 300 299 299 299 301 305 306 306 307 311 309 310 312 311 312 313 314 313 313 313 313 315 315 314 311 312 313 313 313 316 318 317 314 313 315 314 313 312 316 322 323 314
300 301 300 299 298 298 302 304 305 307 308 304 307 310 311 314 313 313 313 313 312 313 314 313 315 314 313 312 311 311 311 313 316 318 317 316 316 315 313 315 321 316 315 312
300 300 300 299 298 298 302 303 303 302 309 308 308 309 311 315 314 313 313 313 313 313 314 314 314 313 313 312 311 311 313 315 314 314 313 314 315 315 314 316 314 316 312 312
300 299 300 299 298 297 300 302 302 301 303 306 308 308 311 312 314 314 314 314 313 313 314 314 313 313 313 314 312 312 312 314 313 313 312 313 315 313 314 313 313 313 312 312
299 299 300 299 298 296 298 298 300 301 304 307 308 308 307 310 313 313 313 313 314 313 312 311 311 311 311 312 313 313 313 312 313 317 312 312 315 313 314 313 313 313 314 313
299 299 299 299 299 297 297 297 299 302 304 306 306 306 306 310 312 314 313 313 313 311 310 310 312 312 312 311 311 311 312 313 313 314 312 317 312 310 311 313 313 312 312 312
299 297 298 299 299 299 298 297 298 299 301 302 305 305 306 309 311 313 313 312 311 310 311 314 314 313 313 313 312 311 311 312 314 315 313 311 314 312 312 315 318 314 313 313
299 298 298 298 299 299 298 298 297 298 299 304 301 303 305 309 312 313 312 311 310 310 313 313 314 315 312 312 312 312 311 310 314 314 315 313 318 315 313 315 320 313 314 315
299 298 298 297 298 298 298 299 296 297 299 299 300 303 305 304 308 311 312 312 312 310 313 314 314 313 311 313 312 313 313 313 315 314 315 311 312 309 311 319 321 315 315 315
298 298 298 298 298 298 298 298 298 297 298 298 298 298 300 302 305 309 308 313 312 313 314 313 312 313 312 312 311 312 312 314 314 313 314 314 309 313 317 315 313 313 313 315
298 298 297 298 298 298 298 298 297 296 298 298 297 297 297 298 300 302 303 308 312 311 314 312 312 312 311 312 314 309 313 311 313 312 312 309 308 310 309 309 310 311 311 312
298 298 298 298 298 297 297 297 297 297 298 299 299 299 299 298 297 299 302 310 310 311 308 312 312 312 312 313 312 312 311 309 311 311 311 310 310 311 311 310 312 309 308 309
297 298 298 298 297 296 296 296 297 297 297 298 298 298 300 301 301 298 297 303 303 307 311 313 313 312 310 311 311 311 311 310 312 312 311 310 310 310 310 310 310 311 310 308
298 297 297 297 296 295 296 297 297 297 297 298 298 297 298 299 297 303 301 299 302 306 312 313 313 312 310 310 310 310 309 310 312 312 311 311 311 310 308 310 309 308 308 308
297 297 296 297 296 296 297 297 297 296 297 298 299 298 299 304 303 305 303 301 303 307 312 312 312 311 311 311 311 310 309 309 309 310 309 310 309 309 307 306 307 306 306 306
297 297 297 298 298 297 296 297 297 296 296 297 298 299 302 302 305 306 306 305 307 310 311 312 312 312 311 311 312 309 309 309 309 308 308 311 307 308 304 305 305 304 304 304
296 297 297 296 296 297 296 296 296 295 295 296 297 300 304 306 308 309 309 310 309 310 310 310 311 310 311 312 310 310 308 308 306 306 304 304 304 303 304 303 304 304 305 305
296 296 295 297 297 298 297 296 295 295 296 299 300 303 309 306 309 309 309 309 310 309 311 310 311 311 312 310 310 310 306 304 304 301 301 301 303 304 303 302 302 303 303 304
294 296 298 297 296 295 296 296 297 296 296 297 298 299 303 307 308 310 308 308 310 311 309 309 310 311 309 303 301 300 299 298 298 301 303 302 301 301 301 301 301 301 301 302
295 294 296 294 294 295 297 298 299 299 299 297 298 300 304 306 309 309 309 307 307 310 310 310 312 310 306 300 298 296 295 295 296 297 298 298 298 299 300 300 300 300 302 302
295 294 294 293 294 297 299 301 301 301 301 303 304 305 304 306 306 307 306 308 306 311 307 309 310 306 299 298 296 296 296 297 297 296 297 296 296 296 297 297 298 297 296 297
294 295 295 297 298 301 302 305 305 306 302 301 302 306 306 306 307 305 306 309 309 306 308 309 308 301 298 297 297 296 295 295 295 294 294 293 293 294 295 295 295 294 295 295
295 297 298 300 303 303 304 302 302 301 298 298 299 301 305 305 305 305 309 308 306 310 311 310 304 300 297 296 294 295 294 293 293 293 293 293 292 292 292 291 291 292 293 293
294 296 298 300 301 300 299 298 299 298 296 297 300 301 303 303 305 305 307 309 310 309 311 307 301 297 297 295 294 294 293 292 292 292 292 291 291 291 291 290 289 289 290 291
293 293 295 297 299 300 299 299 298 297 296 296 298 303 306 307 307 308 310 310 311 310 305 299 297 297 295 294 293 291 289 290 290 290 290 291 291 291 290 290 289 288 287 288
291 295 295 295 295 296 297 296 296 295 298 302 302 306 307 304 307 307 308 310 308 303 297 296 296 295 293 291 289 288 288 288 288 288 288 288 289 289 290 290 289 288 287 287

GFSNW_925_thetae_078.txt.gz
Theta_e
301 301 301 300 300 299 301 305 313 306 307 308 309 312 311 309 312 312 313 314 314 314 314 316 315 314 313 312 312 316 316 318 320 319 316 314 316 317 317 322 320 316 317 313
301 300 301 300 299 300 301 305 307 307 306 308 309 308 310 313 313 313 314 313 313 313 314 316 315 314 313 312 312 312 313 316 320 319 316 316 317 318 317 314 315 320 322 312
301 300 301 300 297 299 301 304 305 305 308 306 308 309 311 314 314 315 313 313 313 313 314 314 315 315 313 312 311 313 313 314 315 319 318 315 316 317 316 315 320 318 315 311
301 300 300 300 296 298 301 302 304 301 307 308 306 309 311 311 315 313 313 314 313 314 315 314 314 313 313 312 312 312 313 314 313 314 314 315 316 315 313 310 315 315 311 311
300 300 299 300 297 298 299 301 301 301 303 305 309 308 309 309 312 314 314 315 314 313 314 314 314 313 313 313 312 312 311 313 312 312 312 314 314 314 314 313 313 312 311 311
299 299 299 300 299 298 298 297 298 301 303 305 308 308 308 309 310 314 313 314 314 313 312 311 311 311 310 311 311 312 312 311 312 312 312 312 313 313 313 312 312 312 312 311
300 298 299 299 300 298 298 297 298 301 301 302 306 306 306 309 309 313 312 313 313 312 310 310 311 311 311 310 310 310 311 312 313 310 311 313 312 310 311 313 312 311 312 312
299 297 298 299 299 299 298 298 298 298 299 299 303 301 306 306 310 313 313 312 311 309 311 315 314 314 313 312 311 310 309 311 313 312 311 310 310 311 311 313 314 311 311 312
300 298 298 298 299 299 298 298 297 297 299 301 300 301 305 307 308 311 312 311 310 310 312 313 315 318 312 312 311 311 310 309 311 311 314 314 317 312 312 315 317 312 312 314
299 298 297 298 298 298 298 298 297 298 297 298 298 298 300 303 304 307 311 309 312 311 313 314 313 314 310 313 312 312 312 312 312 312 312 311 311 308 311 320 318 313 315 314
299 298 298 297 298 298 298 297 298 297 298 297 297 298 299 300 300 307 307 310 312 312 314 312 311 312 310 311 311 312 311 312 311 311 313 312 310 312 317 316 314 314 313 314
298 298 298 297 298 298 297 297 297 297 297 297 296 296 296 297 298 299 303 306 310 311 312 312 310 312 310 310 313 309 312 310 311 311 310 307 308 308 308 308 310 310 310 310
298 298 298 298 298 297 297 296 297 297 298 297 298 299 298 299 298 297 302 308 308 311 308 309 311 312 309 312 311 310 310 308 309 310 309 308 308 310 309 310 310 309 308 308
298 298 298 297 297 296 295 295 296 297 297 298 296 297 297 298 299 297 297 300 301 303 308 310 313 312 308 310 309 309 309 309 310 310 310 308 309 308 308 310 308 308 308 307
298 298 298 297 297 297 296 295 296 297 297 298 297 296 297 298 298 298 299 298 298 304 309 311 312 311 309 308 309 308 307 308 309 310 308 309 309 307 306 308 307 306 306 306
298 298 297 297 297 298 296 296 297 297 297 298 298 297 297 297 300 297 302 303 300 305 309 311 310 310 310 309 311 308 307 307 307 308 308 308 308 306 303 305 305 305 303 304
297 297 297 297 297 297 296 296 297 296 295 297 297 298 301 301 303 304 306 302 305 306 310 310 310 311 310 310 309 307 307 307 307 306 306 309 304 305 302 303 303 304 304 303
296 297 297 295 295 297 297 297 296 296 296 296 296 296 300 303 307 308 306 308 307 309 309 309 310 310 310 310 308 307 306 306 305 304 301 302 303 303 304 302 302 302 302 302
296 295 294 297 297 298 297 296 296 296 296 298 298 299 302 299 307 307 308 308 308 308 310 310 309 311 311 309 307 308 305 304 302 301 301 302 302 303 301 300 300 300 300 300
295 296 297 298 296 294 295 296 296 296 296 296 296 298 300 300 307 307 307 308 309 309 309 307 307 309 307 301 299 298 297 297 299 301 303 302 301 300 300 300 299 299 299 300
295 296 295 294 293 294 297 297 298 298 298 296 297 297 300 302 305 307 308 307 306 309 309 308 308 307 306 299 297 296 296 296 297 297 297 298 298 298 298 299 298 298 299 299
295 293 293 294 293 295 298 299 300 300 301 301 301 302 301 302 305 306 305 307 306 310 307 309 308 304 299 297 296 296 296 296 296 296 296 296 296 296 296 296 296 296 295 295
294 294 295 296 297 298 301 303 304 303 300 299 298 300 303 304 304 304 305 308 308 306 308 306 305 299 297 296 296 295 295 295 294 294 294 293 293 293 294 294 293 293 293 294
294 293 291 299 301 301 302 301 300 299 297 298 297 298 301 304 304 304 307 307 305 307 309 306 301 300 297 296 295 295 293 293 293 293 292 292 292 292 291 291 290 290 291 291
292 292 291 296 299 299 298 296 297 297 296 296 297 298 300 302 304 303 306 307 307 307 308 305 299 297 296 295 294 293 292 291 290 291 291 291 291 290 290 290 289 289 289 289
292 293 291 294 294 294 292 295 296 296 295 296 296 301 305 306 305 307 309 308 308 307 302 298 296 295 295 294 292 290 289 289 289 289 289 290 290 290 290 290 289 288 288 287
291 292 293 293 293 294 295 295 295 294 296 299 299 304 304 302 306 307 306 308 304 300 296 295 294 294 293 290 289 288 288 287 287 287 286 286 285 288 287 286 287 287 288 288

GFSNW_925_thetae_081.txt.gz
Theta_e
302 301 301 301 300 301 301 300 302 306 306 303 307 309 309 310 311 312 313 312 314 313 313 314 313 314 314 313 314 317 315 315 316 318 315 314 315 314 314 311 314 307 314 312
302 301 300 300 299 299 302 301 300 304 304 306 309 308 309 311 313 313 314 313 312 313 313 314 314 313 312 311 311 313 315 314 315 315 316 315 318 316 316 312 311 306 311 316
301 300 300 300 296 298 302 300 301 298 300 304 307 310 310 311 312 313 313 313 311 313 313 312 314 313 312 312 310 314 314 315 316 313 315 317 318 317 315 312 310 314 310 311
300 300 300 300 296 298 300 296 301 300 304 302 304 307 308 309 313 312 312 313 313 312 314 313 312 312 311 311 311 310 311 314 315 314 314 315 316 318 316 310 314 315 312 313
301 300 299 299 297 297 297 295 296 299 301 303 306 304 306 309 310 311 313 313 313 311 312 312 312 311 310 311 310 310 308 312 310 312 313 313 315 315 315 315 315 313 310 312
300 300 299 299 299 298 297 297 297 299 300 301 305 303 307 306 307 311 312 312 314 311 311 310 309 308 307 309 310 309 309 310 310 308 311 311 311 313 312 312 311 311 311 310
300 299 298 299 299 298 298 297 296 296 297 297 298 302 302 306 307 309 312 311 312 311 308 308 309 309 309 308 308 307 309 310 310 307 308 310 310 309 311 311 311 310 311 310
301 299 298 299 299 299 298 298 296 295 296 296 299 299 302 305 306 309 312 311 309 307 309 311 312 311 311 311 310 308 306 308 310 309 308 310 309 310 310 312 312 309 310 311
301 299 297 298 299 299 297 298 297 294 297 296 297 297 302 304 305 306 310 310 305 308 309 311 314 311 311 310 311 309 309 306 307 307 311 313 316 311 311 314 316 311 309 312
300 298 297 297 299 298 298 297 298 297 296 294 296 295 297 301 302 303 306 305 307 308 309 309 308 313 309 311 311 311 309 309 308 310 309 311 312 308 312 317 314 313 312 312
299 298 298 298 298 297 297 296 298 297 296 294 295 297 297 297 299 302 304 306 309 310 311 309 309 310 308 309 309 311 310 308 309 310 311 310 309 311 316 315 313 313 312 313
299 298 298 298 298 299 297 296 296 296 297 294 295 295 296 295 295 298 300 304 305 310 311 310 307 310 306 307 313 307 310 308 309 309 309 306 307 308 307 307 309 309 309 309
299 298 298 299 298 298 298 296 295 296 296 295 294 294 298 298 298 297 298 304 304 304 305 307 307 309 305 310 310 308 308 306 307 309 307 307 308 308 308 309 309 307 307 307
298 298 299 299 298 297 298 297 296 296 296 297 294 296 296 298 296 297 297 298 298 300 304 310 307 310 305 308 307 307 306 307 308 308 307 307 308 307 307 307 306 306 306 306
297 298 298 298 297 297 298 298 296 296 297 296 297 295 297 297 297 296 297 297 297 299 306 310 308 307 307 306 306 306 305 306 308 308 307 306 307 306 305 306 305 304 305 305
297 297 297 297 297 298 297 293 296 296 297 298 296 294 295 296 297 296 298 298 299 301 306 309 308 307 308 306 307 305 304 304 305 307 307 306 304 302 303 304 304 304 303 302
297 296 297 297 297 297 296 293 296 296 295 297 296 294 295 299 299 296 298 303 302 304 307 308 308 308 309 309 306 305 305 305 305 304 306 306 304 305 302 302 302 302 302 302
296 296 297 297 295 297 297 296 296 296 296 295 296 294 296 300 305 306 305 304 304 307 308 308 309 310 310 310 307 307 305 303 303 301 301 302 302 302 301 301 300 301 301 300
296 295 296 297 297 297 296 295 296 296 295 296 296 293 297 299 301 304 306 306 307 307 308 309 308 307 309 306 306 306 304 303 301 301 301 301 302 302 300 299 299 299 298 298
295 294 296 294 295 294 293 296 296 296 295 296 295 296 298 298 301 304 307 307 308 308 308 307 310 310 304 298 296 296 297 297 298 301 302 301 300 299 299 299 298 297 297 297
294 292 292 293 293 293 296 295 296 296 297 297 297 297 298 299 302 304 306 306 306 308 305 307 307 308 301 296 295 295 296 296 297 297 297 297 297 297 297 297 297 297 297 297
294 293 293 294 294 293 295 291 298 298 300 301 300 301 300 300 301 302 304 306 305 308 306 308 307 302 297 295 296 295 295 295 295 294 294 294 295 294 295 295 295 294 294 294
293 293 293 296 296 295 293 291 294 294 298 298 299 298 300 302 302 303 303 306 307 304 307 308 303 297 295 294 294 294 294 294 294 293 293 293 293 293 293 293 292 291 292 293
290 289 286 291 287 294 296 296 295 294 297 297 297 297 299 301 302 303 307 307 305 307 307 305 299 297 296 294 294 294 294 293 293 292 292 292 291 292 291 290 289 289 290 290
287 288 286 285 290 288 294 295 295 295 294 296 295 297 298 301 303 303 305 306 307 306 307 305 299 297 296 295 294 293 292 291 290 291 290 290 290 290 289 289 288 288 288 288
285 289 290 287 285 284 283 284 294 295 294 293 296 298 303 305 304 306 308 306 304 306 302 298 295 295 294 295 291 290 289 289 288 288 287 287 286 288 288 287 286 287 288 287
291 291 291 286 287 288 285 287 289 294 292 294 296 301 302 300 304 306 305 307 303 297 295 294 294 294 293 291 290 289 288 287 285 285 285 284 284 286 284 284 284 285 286 285

GFSNW_925_thetae_084.txt.gz
Theta_e
302 301 300 301 301 300 301 299 300 304 304 301 306 309 309 309 309 310 311 311 313 314 314 315 314 316 314 304 308 307 307 313 316 314 315 313 314 315 314 312 317 303 306 311
302 301 299 297 297 299 301 299 298 302 304 305 308 307 308 310 312 314 313 312 312 312 312 314 313 312 311 313 314 314 313 314 315 316 317 315 318 315 314 310 306 302 309 312
302 301 299 296 295 297 301 296 296 296 298 304 305 307 308 309 310 313 312 313 310 311 312 310 312 312 312 311 312 314 313 314 308 310 313 314 318 316 312 310 305 307 308 311
301 300 299 299 295 297 298 292 299 297 302 301 303 305 304 308 311 309 310 312 312 311 312 312 311 311 310 310 310 312 311 315 313 312 314 315 315 316 313 304 311 311 312 310
301 300 298 299 297 297 296 293 293 294 297 301 305 303 305 306 307 309 313 313 312 310 311 312 312 311 309 310 308 309 308 313 310 310 312 314 315 315 313 314 314 312 310 310
301 299 298 299 299 297 296 296 296 297 297 296 300 302 303 303 306 308 310 311 313 311 311 309 308 308 308 306 308 308 308 310 310 311 311 312 317 316 315 313 313 312 311 309
301 299 298 299 299 297 298 297 295 292 295 295 297 298 299 303 304 308 308 310 311 310 306 306 308 308 308 307 307 305 308 309 308 308 308 312 310 308 311 312 310 309 310 309
301 299 297 298 299 298 297 297 295 293 294 294 296 296 298 299 302 306 308 310 307 304 307 310 311 312 309 310 309 308 305 308 309 308 307 308 309 309 310 311 311 308 310 311
301 298 297 297 298 298 296 298 297 294 296 294 295 295 296 300 301 300 306 304 302 306 308 309 313 309 310 309 308 307 307 305 306 306 310 311 314 310 309 312 313 308 309 311
300 298 298 297 298 298 297 296 296 297 296 293 294 294 294 297 300 299 301 302 303 306 307 308 306 310 308 310 310 310 308 307 306 309 307 308 311 309 312 316 310 310 310 311
299 299 297 297 299 298 298 296 296 296 296 293 294 296 296 296 296 298 299 301 308 308 309 308 307 308 307 308 307 310 308 308 307 308 309 308 308 311 316 311 312 312 311 311
299 298 296 298 299 298 298 296 296 295 295 294 295 295 295 295 295 296 297 302 301 309 311 308 305 308 305 305 311 305 310 307 308 307 308 305 306 309 307 306 309 308 310 310
299 297 297 299 299 299 298 298 297 295 295 294 292 293 296 296 296 296 296 300 301 301 300 308 306 307 303 308 309 308 306 305 306 308 307 307 308 308 307 307 307 306 306 307
297 297 298 297 298 297 298 298 298 296 295 295 294 295 296 296 296 296 296 296 298 298 299 308 306 308 303 306 306 305 305 307 307 307 306 308 308 307 307 305 305 305 304 305
297 297 297 296 296 297 298 298 296 296 295 296 296 295 296 296 296 295 296 296 297 299 301 308 310 305 307 304 305 305 304 306 308 308 306 305 307 305 305 305 304 303 304 305
297 297 296 296 297 298 297 292 296 296 296 296 295 293 293 295 298 294 295 296 296 299 302 307 309 305 308 306 306 305 303 302 304 307 306 305 303 302 303 303 303 303 302 302
297 296 296 297 297 297 295 292 295 296 296 296 295 294 293 296 298 295 297 297 301 300 304 306 306 307 309 308 306 305 305 305 305 305 305 306 304 304 302 301 301 301 301 300
296 296 295 295 295 296 296 296 296 296 295 294 295 293 293 298 301 301 299 301 303 304 307 308 309 308 310 311 305 305 304 302 301 301 300 302 301 300 300 300 299 300 300 299
296 295 296 296 296 297 296 294 295 295 295 295 296 297 295 297 299 300 304 304 306 303 307 307 308 307 309 307 304 305 303 304 302 300 300 301 302 301 300 299 299 299 298 298
295 294 294 292 294 293 292 296 295 295 295 296 295 295 297 297 300 303 304 305 307 308 308 307 309 309 303 297 296 296 297 298 299 301 301 300 300 299 299 299 298 297 297 296
294 291 291 293 293 293 296 295 295 294 294 295 293 296 297 297 301 302 304 305 305 308 304 309 305 305 299 295 294 294 296 297 297 297 297 296 297 297 297 297 296 296 296 296
293 292 292 293 294 294 294 290 296 296 293 299 298 297 298 299 299 301 302 305 304 307 306 307 306 301 295 295 296 295 294 295 294 294 294 294 294 294 294 295 294 293 293 293
293 293 293 293 291 292 290 293 288 288 293 297 296 295 296 298 301 302 302 306 306 305 307 307 303 297 294 293 293 294 293 294 293 293 293 293 293 292 292 292 291 290 291 291
289 286 285 288 288 294 296 293 296 293 294 295 294 295 296 299 301 303 307 306 304 306 306 305 295 295 295 293 293 294 294 293 292 292 291 291 291 291 290 289 288 288 288 289
284 287 286 283 288 290 294 294 291 290 294 294 294 295 297 298 301 302 305 306 306 306 306 304 300 297 295 295 294 293 293 290 290 290 289 289 289 289 288 288 286 287 287 287
283 287 289 285 283 282 281 279 283 286 292 290 293 296 299 302 303 306 307 306 304 305 302 298 295 295 295 294 293 290 289 289 288 287 286 285 285 286 285 285 285 286 286 285
291 291 291 289 288 290 283 283 286 292 290 292 292 297 300 296 302 305 304 304 301 297 294 293 294 295 293 291 291 290 288 286 285 285 284 284 283 283 283 282 283 284 284 284

GFSNW_925_thetae_087.txt.gz
Theta_e
301 301 300 300 301 300 301 298 299 302 303 300 306 308 308 308 311 310 311 312 312 314 315 315 307 308 307 304 305 305 305 305 303 311 313 311 313 314 312 309 310 302 303 310
301 301 300 299 300 297 300 297 296 301 302 303 306 306 307 309 311 312 313 313 312 312 312 315 313 312 309 305 306 305 305 304 305 314 315 314 314 314 315 309 305 303 309 310
301 300 300 296 296 296 299 293 293 293 296 303 304 306 306 306 308 310 309 312 310 310 311 310 312 313 310 304 306 307 305 314 308 310 312 313 316 315 313 312 304 306 306 311
301 299 299 297 296 296 297 291 297 295 298 299 302 304 305 305 308 307 308 311 311 311 311 310 311 311 310 313 314 313 311 316 311 312 314 314 314 316 313 309 312 310 311 311
301 299 297 299 295 296 295 292 292 293 294 296 300 301 303 303 303 306 311 312 311 311 311 311 312 310 310 309 308 309 308 313 310 310 313 314 315 315 314 311 311 311 310 309
301 298 297 299 296 296 295 295 294 295 294 294 296 296 300 300 301 305 307 308 310 312 309 307 307 307 307 308 306 308 308 309 308 307 312 314 317 314 312 311 312 310 310 308
301 298 297 299 299 296 297 296 293 291 294 294 296 296 297 299 299 304 305 307 312 308 304 304 305 306 306 306 307 304 307 308 308 308 309 311 307 308 312 312 311 311 310 309
301 298 296 299 299 296 297 297 294 292 294 294 295 295 295 296 299 301 303 308 306 302 304 309 311 312 308 308 307 306 304 307 308 309 310 308 309 309 310 311 312 308 309 310
300 298 297 297 299 297 297 296 296 293 295 293 294 294 293 295 298 298 302 298 299 303 306 307 312 306 309 309 307 306 306 304 306 306 309 310 313 310 309 309 312 307 308 310
300 298 296 297 298 298 296 296 295 295 293 292 294 293 293 295 296 296 298 297 297 304 306 308 306 309 307 309 310 309 306 306 306 309 307 307 308 309 310 313 309 308 308 309
299 298 296 298 298 297 296 296 295 294 291 291 293 294 294 294 294 295 297 299 304 308 309 309 306 307 305 306 306 309 307 306 307 307 308 307 306 310 312 309 310 309 309 310
299 298 297 298 298 298 296 296 297 296 295 293 294 294 294 294 294 295 295 298 298 304 308 308 306 306 303 303 308 304 308 306 307 306 306 303 305 307 307 305 308 307 311 309
298 297 298 298 298 298 297 297 297 295 295 293 292 293 294 295 295 295 296 296 299 299 298 302 307 308 302 306 307 307 305 303 305 307 306 307 308 307 306 306 306 305 306 306
297 297 297 296 296 297 298 297 298 297 295 295 292 295 295 295 296 296 295 296 297 297 299 304 308 307 302 304 304 304 303 306 306 306 306 307 307 306 306 304 303 304 303 304
297 297 296 296 296 297 297 296 296 296 295 295 295 294 295 295 295 295 295 295 295 298 299 304 310 306 306 302 302 303 302 305 306 307 304 305 306 305 305 304 304 302 304 304
297 297 296 296 297 297 296 291 296 296 295 296 295 292 293 294 296 294 294 294 295 297 301 303 307 306 306 306 305 304 303 302 303 306 305 305 303 302 303 303 303 303 302 301
297 297 296 295 296 296 294 292 295 296 296 297 295 292 292 294 299 294 294 295 298 299 300 305 305 305 308 309 306 304 304 304 304 302 305 305 304 304 301 301 301 301 300 299
296 296 295 295 295 296 296 295 294 295 294 294 291 292 292 297 298 301 295 297 299 301 304 306 307 307 309 310 306 304 304 302 301 300 300 301 300 299 299 299 298 299 299 298
295 295 296 296 295 295 295 293 295 294 295 291 291 291 291 294 296 297 300 301 303 303 306 307 306 306 309 307 304 304 303 304 302 299 300 300 301 300 299 298 298 298 298 297
294 296 294 292 294 292 293 295 293 294 295 295 294 291 293 294 297 299 303 303 306 307 305 304 306 305 303 297 295 295 296 298 299 301 302 300 300 299 298 298 297 297 297 296
294 291 291 292 293 293 294 295 295 295 294 294 294 295 296 294 298 298 302 304 304 307 306 309 306 306 298 294 294 294 295 296 296 297 296 296 296 296 296 296 296 295 295 294
293 293 293 294 292 288 291 289 294 296 291 297 298 297 295 296 298 300 299 305 303 307 306 308 305 302 295 294 295 295 294 294 293 293 293 294 294 294 294 294 293 292 292 293
293 292 290 289 292 287 290 291 286 286 290 294 294 294 295 296 298 301 302 305 305 305 307 305 303 297 293 292 294 294 293 294 293 293 293 293 293 292 291 291 290 289 290 289
288 283 286 284 284 294 294 291 285 288 286 290 294 294 291 296 299 301 305 306 304 304 305 303 297 296 294 294 293 294 294 293 291 291 291 291 291 290 290 288 287 287 287 287
285 284 288 284 286 288 294 294 291 287 285 293 293 293 294 294 299 301 304 306 303 304 305 303 299 298 294 293 294 294 292 288 286 289 288 288 288 288 287 285 285 286 285 286
282 286 285 284 283 280 281 288 284 283 286 286 292 294 296 295 301 304 305 306 302 303 299 296 294 295 295 294 294 292 290 289 289 287 286 284 285 286 284 284 284 284 284 283
290 290 289 287 288 288 281 282 285 289 290 291 290 292 292 294 299 304 301 301 299 296 295 292 293 293 294 291 290 290 289 286 286 285 284 283 283 283 282 282 282 283 283 283

GFSNW_925_thetae_090.txt.gz
Theta_e
301 300 297 297 301 298 300 297 299 301 303 299 306 308 308 308 310 310 312 312 313 315 314 308 306 306 305 303 302 302 301 301 307 307 310 308 311 311 309 305 314 301 302 311
300 299 297 296 300 297 299 296 295 298 301 298 305 305 306 305 310 310 309 313 310 311 312 313 311 313 306 305 303 302 302 299 305 311 310 312 311 313 308 306 306 303 306 310
300 299 296 296 297 296 298 292 292 292 294 299 304 306 306 305 306 309 307 311 310 310 310 310 312 313 307 305 304 304 303 302 304 306 306 310 311 314 310 308 303 306 307 309
301 299 297 296 296 295 295 290 295 294 294 296 297 302 301 303 304 304 307 311 310 311 312 311 310 311 311 305 304 306 305 311 308 311 312 310 311 313 313 305 308 310 310 309
301 298 297 297 296 296 295 292 291 291 293 294 297 297 299 301 301 301 307 310 309 311 313 312 312 311 310 310 308 306 304 315 310 311 313 313 313 314 313 313 310 309 309 308
301 298 297 297 296 295 294 293 293 291 293 293 296 295 297 298 298 300 305 307 307 311 308 305 305 305 307 307 308 308 309 310 308 311 313 314 316 313 313 310 309 311 311 309
301 298 298 297 296 295 295 295 292 291 294 293 295 295 295 296 296 298 301 303 310 308 301 302 303 303 304 305 305 304 306 308 307 310 309 314 309 306 311 311 311 309 308 307
301 298 297 297 296 296 294 295 293 291 292 294 295 294 295 293 295 298 299 304 302 299 301 307 309 311 307 307 304 305 304 307 307 308 308 307 309 309 312 312 313 309 309 309
301 298 297 298 297 296 294 295 295 291 291 293 294 294 292 293 295 294 298 298 297 301 304 307 311 307 308 308 306 305 305 303 308 306 309 309 313 308 308 308 312 308 307 308
300 298 297 298 297 297 296 294 294 293 292 291 292 292 293 293 294 295 295 297 297 303 305 308 306 309 306 308 308 308 305 306 306 310 307 307 306 308 309 313 309 307 307 308
300 298 297 299 298 296 296 296 295 294 290 291 292 293 293 293 293 296 294 298 300 303 307 309 307 306 304 304 305 307 306 306 306 306 307 307 305 310 310 308 309 308 308 308
299 297 298 298 299 298 296 296 296 295 292 292 293 294 294 294 294 293 293 295 297 302 302 305 307 307 302 301 306 302 307 305 306 305 306 302 303 306 307 305 307 307 310 308
298 297 298 298 298 298 297 297 296 295 295 291 291 293 294 294 295 295 295 295 299 300 298 301 306 308 301 304 305 305 304 302 304 305 305 306 307 306 306 305 306 305 305 305
298 297 298 297 297 298 298 297 296 295 293 292 292 294 294 295 294 295 295 295 297 296 298 302 307 307 301 303 302 303 302 304 305 304 305 307 307 306 305 303 303 303 302 303
297 297 297 296 297 297 296 295 295 295 293 293 293 294 294 294 295 295 295 294 293 295 296 301 309 307 306 303 300 302 301 303 305 305 303 304 305 305 304 304 303 302 303 303
297 297 296 296 297 297 295 291 295 295 295 294 295 292 292 294 294 294 293 293 293 294 297 299 304 306 307 308 305 302 301 301 301 304 304 303 303 302 302 303 302 301 300 300
297 297 296 296 296 296 293 292 295 295 294 294 292 292 291 292 297 293 292 294 295 295 296 301 302 303 307 308 308 303 303 302 303 302 303 305 304 303 299 299 299 300 299 298
297 296 295 295 295 295 295 293 294 295 294 293 291 291 291 294 295 299 294 294 297 299 300 305 306 305 308 310 304 303 303 302 301 300 300 301 298 298 298 298 298 298 297 296
296 296 296 296 295 294 294 294 295 294 293 289 292 293 293 292 293 297 300 296 302 301 303 305 304 304 306 306 303 303 302 302 302 299 299 300 300 299 298 297 297 297 297 297
295 295 294 292 292 292 294 294 290 291 293 295 294 290 292 294 294 298 301 302 304 305 303 303 305 304 302 296 295 295 296 297 299 302 302 300 299 298 297 297 296 296 296 296
293 291 291 292 292 293 292 295 293 294 294 294 295 291 296 293 296 297 299 302 303 307 304 307 307 305 298 293 293 293 294 295 295 296 296 295 296 296 296 296 295 294 293 293
294 293 293 294 291 288 288 292 294 295 293 295 297 292 291 295 296 300 299 302 303 301 305 307 306 301 294 293 295 294 294 294 293 293 293 294 294 294 294 293 292 291 291 290
293 291 289 289 290 289 288 289 284 283 290 289 287 290 292 295 296 299 301 303 305 304 307 305 300 296 293 292 294 294 294 294 293 292 292 292 292 291 291 289 288 288 288 288
291 288 288 287 288 290 290 285 284 286 283 284 286 285 289 294 296 298 302 304 305 299 301 299 300 299 296 294 294 294 294 292 291 291 290 290 291 289 289 286 286 286 286 286
288 288 290 287 287 291 290 291 290 285 283 285 285 288 291 293 294 297 302 305 302 302 303 301 297 295 296 294 294 294 293 289 283 286 285 286 287 287 286 284 285 285 284 284
286 285 285 286 284 281 286 291 291 283 284 284 291 291 295 289 295 300 304 305 300 298 295 295 293 293 294 294 294 294 292 289 288 287 286 284 285 285 284 283 283 283 283 282
289 286 287 285 283 281 279 281 283 288 290 286 290 290 293 287 290 300 298 297 295 292 291 292 292 292 293 292 291 290 289 287 286 285 284 283 283 283 282 282 282 282 282 282

GFSNW_925_thetae_093.txt.gz
Theta_e
300 300 297 299 301 297 300 297 297 300 302 298 299 302 307 305 308 309 311 311 311 313 314 308 306 306 305 303 300 300 299 303 304 305 307 306 310 309 308 308 314 305 306 314
300 299 297 297 301 296 299 295 294 297 299 298 305 304 306 305 306 308 308 311 310 309 313 313 312 310 304 304 301 300 301 299 305 307 307 308 309 309 308 306 307 308 311 313
300 299 297 297 299 296 297 290 292 292 294 294 302 303 301 302 303 308 306 310 309 309 309 310 312 313 305 304 303 303 302 300 304 305 303 308 310 311 307 307 309 308 309 310
300 299 297 297 296 296 295 289 292 293 289 295 295 299 298 300 300 300 304 310 307 310 312 311 311 312 305 303 304 306 304 303 303 305 310 309 309 312 309 304 306 309 307 309
301 299 297 297 295 295 294 292 291 290 291 292 296 295 297 299 297 299 305 308 304 307 312 311 310 310 310 310 303 305 304 309 309 312 312 311 310 311 311 309 307 310 308 309
302 299 297 296 294 294 293 292 292 290 292 293 294 294 296 296 296 298 300 303 303 308 309 303 301 303 305 307 308 307 307 308 309 315 313 314 314 312 312 311 309 309 312 310
302 298 297 296 295 293 295 294 291 290 294 293 295 294 294 296 295 297 298 300 307 305 299 299 301 302 303 305 306 307 307 309 306 312 312 313 308 306 310 311 310 308 308 307
301 298 296 297 296 294 294 294 292 290 292 293 294 294 294 292 293 296 298 301 299 298 299 305 308 307 306 305 304 305 303 306 307 312 312 307 308 310 310 313 312 308 308 307
301 298 296 297 297 296 294 294 294 290 291 292 294 293 292 293 293 293 295 295 296 300 304 305 310 307 308 308 306 304 304 303 305 306 309 309 313 308 308 308 313 307 307 308
301 298 296 297 296 296 295 295 294 292 291 291 291 291 292 293 293 293 293 295 297 300 304 306 305 308 305 307 307 307 306 306 307 309 306 307 306 306 307 312 308 307 305 307
300 297 297 298 297 296 296 295 295 294 290 291 291 292 293 292 292 293 293 297 296 301 307 308 308 307 303 303 303 307 306 306 307 307 308 308 303 308 310 307 308 308 307 307
300 297 297 298 298 297 296 295 295 295 292 292 293 293 293 294 293 292 292 294 297 301 299 301 307 307 301 300 306 302 307 305 306 305 307 302 302 305 306 304 307 307 308 307
299 297 298 298 297 297 297 296 295 295 292 290 291 292 293 294 294 294 294 293 299 298 298 299 302 308 304 304 304 304 303 300 304 305 304 304 306 306 305 305 305 304 304 304
298 299 299 296 297 297 297 295 295 294 290 290 291 293 294 294 294 294 294 295 295 295 296 299 303 307 302 303 302 302 301 302 303 303 303 305 306 306 305 303 302 302 301 302
299 299 298 296 297 296 296 295 295 294 292 292 292 293 294 294 294 295 294 293 292 293 294 298 305 306 305 303 300 300 300 302 304 304 302 303 303 304 303 303 302 300 302 301
299 298 296 296 297 295 294 291 295 294 294 289 291 292 292 293 295 294 293 294 294 294 295 298 301 303 305 309 306 301 299 299 300 303 303 302 302 301 302 302 301 300 299 299
298 297 297 297 297 295 292 292 295 295 294 292 290 292 291 291 295 293 291 293 293 293 294 298 301 301 304 306 307 302 301 302 302 301 302 304 303 303 299 299 299 299 297 297
297 297 296 296 295 295 294 293 294 293 293 290 283 291 291 292 294 295 295 296 297 298 295 300 305 305 306 309 304 302 303 301 301 300 299 300 298 298 298 297 298 297 297 296
297 296 295 295 295 293 293 294 294 294 292 289 291 291 288 290 292 293 299 295 299 298 301 303 303 305 305 304 302 303 302 302 301 299 298 299 299 298 297 297 296 296 296 297
296 295 294 293 292 293 294 294 289 288 290 294 294 290 290 291 292 293 298 302 304 304 301 303 305 305 301 295 294 294 296 297 298 301 301 300 299 298 297 296 296 296 295 295
295 292 292 291 293 294 290 294 292 292 294 293 291 289 294 290 295 291 294 299 303 306 302 304 306 306 298 292 293 292 294 295 295 296 295 295 296 296 296 295 294 293 293 293
294 293 293 293 291 287 287 293 294 291 293 290 289 289 289 290 294 298 297 298 301 304 302 305 306 298 295 292 295 294 294 294 293 293 293 293 293 293 293 292 291 290 290 289
293 292 290 292 289 289 287 290 284 282 285 285 285 287 290 292 294 296 298 301 301 303 306 306 300 298 296 293 294 294 294 293 293 292 292 292 292 290 290 288 287 287 287 286
292 292 291 292 289 290 286 284 284 284 283 284 283 283 287 291 293 296 296 300 303 305 299 298 298 295 294 295 294 294 294 292 292 291 290 290 290 288 286 285 285 285 284 285
290 291 293 288 289 288 283 283 286 284 283 284 285 287 287 285 294 292 295 301 305 301 299 294 292 293 293 293 294 293 293 290 288 286 284 285 286 286 285 283 284 284 283 282
287 286 288 288 287 289 291 291 292 285 284 284 290 291 289 287 288 292 295 301 298 297 293 291 289 289 291 292 293 293 292 290 288 287 286 284 285 285 284 283 283 283 283 282
288 287 288 286 282 283 282 289 286 287 288 284 290 289 287 288 285 288 289 290 290 290 290 287 289 290 290 291 292 291 289 288 286 285 284 283 283 282 282 281 281 282 282 281

GFSNW_925_thetae_096.txt.gz
Theta_e
301 300 298 301 300 296 301 302 308 299 303 307 307 307 306 305 307 308 310 310 311 311 311 312 309 308 307 303 302 303 304 306 305 305 304 306 311 311 311 318 318 314 315 317
301 299 297 298 298 296 299 303 302 297 299 308 307 305 305 305 306 307 308 311 310 309 311 313 314 310 305 303 302 302 302 306 306 306 303 308 311 310 310 312 312 316 320 316
300 299 297 297 296 296 296 299 308 301 300 299 304 304 301 300 301 307 304 309 309 308 310 311 312 310 306 304 302 302 301 303 306 303 305 307 308 309 310 310 314 313 316 314
299 299 297 296 294 296 295 297 300 297 303 301 301 302 299 299 300 300 305 308 305 307 311 311 311 310 306 305 304 305 303 303 304 304 306 308 309 308 309 311 309 312 312 311
300 299 297 295 294 295 295 299 300 296 297 296 300 298 298 298 297 299 305 305 304 307 310 309 311 309 310 307 305 304 304 308 311 308 310 310 313 309 308 307 308 308 310 312
301 298 297 296 295 295 296 293 293 297 295 298 298 298 297 297 297 298 301 301 302 307 307 302 303 303 304 306 306 306 306 307 311 316 314 313 313 311 310 307 307 308 310 310
300 298 297 296 295 295 295 294 295 297 298 297 297 296 296 296 296 297 298 300 305 305 299 303 304 303 304 306 306 305 307 309 310 315 315 318 310 310 311 310 309 309 309 311
299 297 297 296 295 295 295 294 295 296 298 296 296 296 296 296 296 297 297 300 298 297 302 311 311 310 309 307 307 308 309 311 311 315 315 311 310 311 313 312 312 310 311 310
299 297 297 296 296 295 295 294 294 294 297 296 295 296 295 297 297 297 297 297 297 301 307 311 313 313 311 311 309 306 306 307 311 311 313 312 314 310 309 311 315 309 311 311
298 296 297 296 295 295 296 294 294 294 295 294 294 296 296 296 296 297 296 297 299 302 309 311 311 312 307 311 311 310 310 311 312 313 313 312 308 308 308 315 315 311 308 311
298 296 297 297 296 295 295 295 295 295 296 294 293 294 295 295 296 297 297 300 300 302 307 308 308 308 308 308 307 309 310 311 312 311 312 313 306 310 313 313 311 310 310 310
298 296 297 298 297 296 295 295 295 294 296 295 293 293 293 294 294 296 296 298 298 298 301 302 304 308 307 307 311 306 311 308 310 309 311 306 306 308 308 308 310 311 311 310
298 296 298 299 298 296 296 296 295 294 296 294 294 295 293 294 294 294 297 297 298 298 298 299 301 308 306 309 309 308 307 304 308 308 306 306 309 308 307 307 308 307 306 309
297 297 299 298 297 297 295 296 294 294 294 298 295 293 294 294 294 293 294 296 296 297 297 299 302 307 305 308 306 306 307 305 307 308 307 307 308 307 307 306 306 305 304 305
298 300 298 298 297 297 295 294 294 294 295 298 296 293 293 293 293 294 293 294 295 297 298 299 303 305 306 306 304 307 306 307 308 310 307 306 307 306 305 306 305 304 305 304
299 299 298 297 296 295 294 296 294 294 294 297 298 293 294 292 294 294 294 294 295 296 296 298 300 302 306 310 308 306 303 303 303 306 305 305 306 305 304 305 303 302 303 303
299 298 297 296 295 295 293 295 295 294 294 295 297 297 293 292 295 296 295 294 296 296 297 297 300 302 306 308 307 306 304 305 305 304 305 306 305 306 302 302 301 300 300 300
298 298 297 296 295 294 294 295 294 293 293 293 296 297 296 293 297 298 296 297 297 298 298 299 302 305 306 308 307 305 304 303 304 303 302 302 302 301 300 300 300 300 300 299
298 297 296 295 294 294 294 294 293 293 293 295 295 297 298 294 296 296 298 297 298 298 299 301 303 304 306 305 303 303 301 302 302 301 301 301 302 301 300 299 299 299 299 299
297 295 294 294 292 294 294 293 294 295 295 295 296 292 296 295 295 296 297 300 301 304 302 303 304 304 301 297 296 296 297 298 299 302 303 301 301 300 298 298 298 297 296 296
295 294 293 292 294 293 293 295 296 295 296 295 295 294 295 293 295 296 296 299 301 305 305 305 306 306 299 296 296 295 295 296 296 296 296 296 297 298 297 296 294 293 293 293
294 293 292 292 292 292 294 294 295 294 297 295 296 296 294 294 295 298 298 298 299 302 303 307 306 300 296 296 295 295 294 294 294 293 294 294 294 294 294 293 292 291 290 290
293 293 292 295 291 296 297 296 293 292 293 293 294 294 293 294 295 297 297 300 301 302 307 306 300 297 295 294 295 296 295 294 293 293 293 292 292 291 290 290 288 288 288 287
295 296 294 297 294 295 296 296 294 291 292 292 292 292 294 293 294 296 297 299 301 306 305 302 298 294 292 294 294 295 295 295 293 291 290 291 291 289 286 286 286 285 285 285
293 295 296 292 292 290 289 288 291 289 290 291 291 291 292 292 293 294 296 298 303 301 300 299 296 293 291 292 293 293 294 293 291 289 287 287 286 287 285 283 283 283 283 283
291 289 290 290 294 293 293 292 292 288 290 290 291 292 292 293 293 295 296 300 301 300 298 296 294 292 290 290 291 292 292 291 290 289 287 285 286 286 284 283 282 282 282 282
292 290 290 290 292 292 292 292 291 288 290 291 291 290 292 291 292 294 295 299 298 297 296 294 292 291 290 288 290 291 291 290 288 286 284 283 283 283 282 282 282 282 282 281

GFSNW_925_thetae_099.txt.gz
Theta_e
302 301 299 298 298 298 303 306 311 301 304 308 309 308 307 305 307 307 310 310 311 311 311 314 312 310 308 304 303 303 304 307 306 307 306 307 310 315 314 320 319 318 319 318
301 300 298 298 297 297 303 306 305 301 303 312 310 307 306 306 307 308 308 311 309 310 311 314 314 307 305 304 303 303 304 307 307 305 305 309 311 311 312 312 314 320 322 316
301 299 298 297 297 297 300 303 309 303 304 304 307 307 303 302 303 307 306 309 308 309 311 311 311 309 305 304 303 303 304 305 307 307 307 308 310 311 311 311 317 317 316 315
300 299 297 297 296 296 299 303 305 302 308 304 302 304 300 301 303 303 306 310 307 307 311 310 311 308 305 305 305 304 304 304 304 305 308 309 309 309 311 313 312 318 312 314
300 299 297 297 296 296 300 303 303 300 301 301 302 299 300 300 300 302 307 306 306 307 311 309 310 308 306 308 305 305 305 308 310 311 306 306 308 310 308 310 310 310 309 312
301 298 297 297 296 296 300 297 297 303 299 300 301 301 299 299 298 300 302 301 304 307 308 304 305 305 306 306 307 306 306 306 313 317 315 314 314 312 310 308 307 309 310 311
301 298 297 297 296 296 299 298 300 301 301 300 300 298 298 298 298 298 299 301 305 304 302 305 307 307 307 306 307 306 306 308 311 318 316 319 312 311 311 310 308 307 309 312
300 297 297 297 297 296 298 296 298 300 300 299 298 297 298 298 298 298 299 300 300 301 305 312 313 312 312 310 310 307 308 312 316 317 316 312 311 312 313 312 312 309 308 309
299 297 297 296 296 296 297 296 296 298 300 298 297 298 297 300 300 300 299 300 299 303 309 312 314 313 311 312 310 309 310 311 312 314 314 313 314 312 310 312 315 312 312 310
298 297 297 296 296 296 298 296 296 298 299 297 297 299 298 298 299 300 299 299 302 305 309 310 311 311 310 312 312 312 311 312 313 315 314 314 310 311 311 316 317 312 310 312
298 297 296 296 295 296 298 296 296 299 299 297 296 296 297 298 298 300 299 302 303 305 308 309 309 308 309 310 310 310 311 312 312 312 313 314 309 311 314 313 312 312 311 311
298 297 297 296 296 295 297 297 296 297 299 298 295 295 295 296 296 297 299 299 299 300 305 306 307 307 307 309 313 308 313 310 311 311 312 308 309 311 309 309 312 313 312 311
297 297 297 296 296 295 297 297 296 298 298 297 297 296 295 294 295 295 299 299 298 299 298 301 303 306 307 308 310 309 309 307 309 310 308 309 310 310 309 309 310 309 309 311
297 297 297 297 297 296 296 297 297 297 299 301 298 294 296 294 294 295 296 297 297 298 298 300 302 304 307 307 308 307 307 308 309 309 309 308 310 309 308 308 308 308 307 308
299 299 299 299 298 296 295 296 295 295 299 301 298 296 295 294 294 295 296 296 297 298 300 300 302 305 307 306 306 307 308 308 309 311 309 308 309 308 306 307 306 307 307 306
300 299 298 299 298 296 295 298 295 295 296 301 301 295 295 295 297 296 297 296 296 296 297 300 301 302 304 308 308 308 306 306 306 307 305 307 307 307 306 306 305 304 305 305
300 298 298 297 296 294 295 297 296 295 296 300 299 298 295 295 298 298 297 297 296 296 297 297 300 302 306 307 307 307 306 306 306 306 306 308 307 308 304 304 303 302 302 302
298 298 296 295 295 294 294 295 294 294 296 297 303 300 298 295 299 299 297 298 298 298 298 299 301 303 304 307 306 305 305 305 306 305 304 304 304 303 302 302 302 302 302 301
298 297 296 294 295 295 295 294 293 293 296 300 300 302 302 296 297 298 299 299 299 299 299 301 303 303 305 302 301 301 300 302 302 302 303 303 304 303 302 301 301 301 300 299
297 295 295 296 294 294 294 294 296 297 297 298 299 295 299 297 297 298 298 299 302 304 302 303 305 304 301 298 297 297 298 298 299 302 305 303 304 303 301 300 299 298 297 297
295 296 294 293 294 294 295 297 299 298 299 297 297 297 298 295 298 298 298 300 301 305 306 305 306 306 299 297 297 297 297 296 296 296 297 297 298 298 299 298 296 295 295 294
295 294 294 294 294 295 298 297 296 297 300 297 298 297 296 296 296 298 298 298 299 302 304 307 306 300 298 297 296 295 294 295 295 294 294 295 295 295 295 295 294 293 292 291
294 295 296 296 294 300 300 299 297 296 296 297 296 296 296 295 296 296 299 300 301 301 305 306 302 299 296 296 296 295 294 295 294 295 294 293 293 292 291 292 290 290 289 289
299 298 295 301 298 298 300 301 299 295 297 296 296 295 296 295 296 297 298 300 301 304 305 305 301 297 294 293 294 294 294 294 293 293 292 292 291 291 288 287 287 287 287 286
298 300 301 297 294 293 292 292 294 293 294 294 294 294 295 295 295 296 297 298 300 303 303 302 300 296 294 292 292 292 292 293 293 292 290 289 289 289 288 285 284 285 284 284
295 293 294 294 295 293 294 295 293 292 293 293 294 294 294 295 295 296 297 300 302 303 301 300 298 295 294 292 291 290 292 291 293 291 290 289 287 287 287 284 283 283 283 283
295 293 293 294 297 296 294 295 294 292 294 295 294 294 295 293 295 296 298 301 302 300 298 297 296 294 293 290 289 289 291 291 291 290 288 286 284 284 284 284 284 283 283 282